BMG2 KEWR-LOWW

Flight info

Callsign BMG2
Flight time 8h 57m
Altitude 35000
Route MERIT DCT HFD DCT PUT DCT BOS DCT BRADD N427A ELSIR/M075F370 DCT 50N050W 51N040W 52N030W 53N020W DCT MALOT DCT GISTI/N0422F390 DCT BAKUR DCT OKSAW DCT KONAN/N0428F410 DCT KOK UL607 FERDI DCT MATUG DCT GUBAX DCT BARSU DCT EKSOS DCT LULAR DCT RUDAP DCT BUDEX BUDEX2W
Aircraft CL60/M-SBDE1E2E3FGHIJ1J4J5J7M3RWXYZ/LB1V1D1

Departure

Time 2026-05-06 11:19
Airport Newark Liberty International Airport (KEWR)

Arrival

Time 2026-05-06 20:17
Airport Vienna International Airport (LOWW)
Time Latitude Longitude Altitude Speed Heading
2026-05-06 10:39 40.70554 -74.17100 26 ft 0 kts 329°
2026-05-06 11:12 40.70555 -74.17100 26 ft 1 kts 329°
2026-05-06 11:13 40.70576 -74.17077 26 ft 7 kts 85°
2026-05-06 11:13 40.70575 -74.17004 26 ft 8 kts 93°
2026-05-06 11:13 40.70562 -74.16944 26 ft 5 kts 143°
2026-05-06 11:13 40.70552 -74.16927 26 ft 4 kts 111°
2026-05-06 11:14 40.70537 -74.16878 26 ft 7 kts 145°
2026-05-06 11:14 40.70490 -74.16836 26 ft 8 kts 144°
2026-05-06 11:14 40.70429 -74.16805 26 ft 10 kts 183°
2026-05-06 11:14 40.70353 -74.16805 26 ft 10 kts 179°
2026-05-06 11:15 40.70305 -74.16768 26 ft 9 kts 94°
2026-05-06 11:15 40.70300 -74.16677 26 ft 10 kts 95°
2026-05-06 11:15 40.70292 -74.16572 26 ft 12 kts 96°
2026-05-06 11:15 40.70284 -74.16448 26 ft 14 kts 94°
2026-05-06 11:16 40.70279 -74.16373 26 ft 5 kts 95°
2026-05-06 11:16 40.70276 -74.16319 26 ft 6 kts 95°
2026-05-06 11:16 40.70271 -74.16248 26 ft 8 kts 95°
2026-05-06 11:16 40.70265 -74.16195 26 ft 0 kts 127°
2026-05-06 11:17 40.70256 -74.16198 25 ft 3 kts 235°
2026-05-06 11:17 40.70237 -74.16230 26 ft 5 kts 225°
2026-05-06 11:17 40.70204 -74.16251 26 ft 0 kts 204°
2026-05-06 11:18 40.70187 -74.16262 26 ft 7 kts 205°
2026-05-06 11:19 40.70001 -74.16381 26 ft 67 kts 205°
2026-05-06 11:19 40.69326 -74.16810 26 ft 140 kts 206°
2026-05-06 11:19 40.68306 -74.17456 267 ft 174 kts 206°
2026-05-06 11:19 40.67230 -74.18126 975 ft 174 kts 200°
2026-05-06 11:20 40.66129 -74.18165 1662 ft 176 kts 167°
2026-05-06 11:20 40.65162 -74.17162 2440 ft 192 kts 130°
2026-05-06 11:20 40.64796 -74.15290 2891 ft 236 kts 93°
2026-05-06 11:20 40.65232 -74.13108 3424 ft 267 kts 65°
2026-05-06 11:21 40.66397 -74.11054 4015 ft 291 kts 41°
2026-05-06 11:21 40.67965 -74.09307 4877 ft 301 kts 36°
2026-05-06 11:21 40.69665 -74.07713 5908 ft 305 kts 37°
2026-05-06 11:21 40.71215 -74.05771 6971 ft 307 kts 47°
2026-05-06 11:22 40.72678 -74.03719 7867 ft 314 kts 47°
2026-05-06 11:22 40.74198 -74.01591 8818 ft 319 kts 47°
2026-05-06 11:22 40.75729 -73.99458 9758 ft 323 kts 47°
2026-05-06 11:22 40.77310 -73.97263 10388 ft 340 kts 47°
2026-05-06 11:23 40.79037 -73.94868 10491 ft 373 kts 47°
2026-05-06 11:23 40.80867 -73.92345 11059 ft 387 kts 46°
2026-05-06 11:23 40.82778 -73.89756 11776 ft 396 kts 46°
2026-05-06 11:23 40.84739 -73.87105 12499 ft 403 kts 45°
2026-05-06 11:24 40.86685 -73.84472 13229 ft 408 kts 46°
2026-05-06 11:24 40.88705 -73.81737 13910 ft 415 kts 45°
2026-05-06 11:24 40.90738 -73.78982 14646 ft 418 kts 45°
2026-05-06 11:24 40.92783 -73.76208 15380 ft 421 kts 45°
2026-05-06 11:25 40.94655 -73.73669 16032 ft 423 kts 44°
2026-05-06 11:25 40.96720 -73.70864 16643 ft 428 kts 44°
2026-05-06 11:25 40.98821 -73.68010 17302 ft 431 kts 44°
2026-05-06 11:25 41.00829 -73.65279 17891 ft 434 kts 44°
2026-05-06 11:26 41.02938 -73.62406 18520 ft 436 kts 44°
2026-05-06 11:26 41.05061 -73.59513 19124 ft 439 kts 44°
2026-05-06 11:26 41.07190 -73.56610 19666 ft 442 kts 44°
2026-05-06 11:26 41.09360 -73.53647 20223 ft 444 kts 44°
2026-05-06 11:27 41.11498 -73.50725 20704 ft 448 kts 43°
2026-05-06 11:27 41.13702 -73.47710 21274 ft 450 kts 43°
2026-05-06 11:27 41.15859 -73.44756 21772 ft 452 kts 43°
2026-05-06 11:27 41.18065 -73.41733 22242 ft 455 kts 43°
2026-05-06 11:28 41.20272 -73.38704 22732 ft 457 kts 43°
2026-05-06 11:28 41.22490 -73.35658 23193 ft 460 kts 43°
2026-05-06 11:28 41.24746 -73.32555 23635 ft 463 kts 43°
2026-05-06 11:28 41.26990 -73.29468 23989 ft 468 kts 43°
2026-05-06 11:29 41.28526 -73.27229 23512 ft 484 kts 46°
2026-05-06 11:29 41.29255 -73.26140 22907 ft 488 kts 46°
2026-05-06 11:29 41.31516 -73.22904 24038 ft 471 kts 44°
2026-05-06 11:29 41.33758 -73.19810 24926 ft 462 kts 43°
2026-05-06 11:30 41.36012 -73.16702 25046 ft 467 kts 44°
2026-05-06 11:30 41.38240 -73.13447 25366 ft 474 kts 50°
2026-05-06 11:30 41.40037 -73.09732 25624 ft 482 kts 58°
2026-05-06 11:30 41.41763 -73.05856 25972 ft 485 kts 57°
2026-05-06 11:31 41.43514 -73.01929 26271 ft 490 kts 57°
2026-05-06 11:31 41.45253 -72.98019 26654 ft 491 kts 57°
2026-05-06 11:31 41.47031 -72.94011 27041 ft 493 kts 57°
2026-05-06 11:31 41.48785 -72.90051 27357 ft 496 kts 57°
2026-05-06 11:32 41.50561 -72.86031 27715 ft 497 kts 57°
2026-05-06 11:32 41.52316 -72.82055 28015 ft 500 kts 57°
2026-05-06 11:32 41.54107 -72.77985 28276 ft 503 kts 57°
2026-05-06 11:32 41.55880 -72.73949 28630 ft 503 kts 57°
2026-05-06 11:33 41.57693 -72.69817 28872 ft 506 kts 57°
2026-05-06 11:33 41.59491 -72.65713 29168 ft 507 kts 57°
2026-05-06 11:33 41.61262 -72.61660 29453 ft 508 kts 57°
2026-05-06 11:33 41.63083 -72.57488 29750 ft 508 kts 57°
2026-05-06 11:34 41.64877 -72.53378 30140 ft 506 kts 57°
2026-05-06 11:34 41.66682 -72.49287 30527 ft 505 kts 56°
2026-05-06 11:34 41.68530 -72.45203 30875 ft 503 kts 56°
2026-05-06 11:34 41.70355 -72.41175 31180 ft 503 kts 56°
2026-05-06 11:35 41.72179 -72.37141 31474 ft 503 kts 56°
2026-05-06 11:35 41.74013 -72.33078 31773 ft 502 kts 56°
2026-05-06 11:35 41.75836 -72.29029 32070 ft 501 kts 56°
2026-05-06 11:35 41.77662 -72.24966 32334 ft 501 kts 56°
2026-05-06 11:36 41.79462 -72.20955 32579 ft 501 kts 56°
2026-05-06 11:36 41.81281 -72.16894 32840 ft 500 kts 56°
2026-05-06 11:36 41.83092 -72.12846 33039 ft 501 kts 56°
2026-05-06 11:36 41.84898 -72.08799 33284 ft 500 kts 56°
2026-05-06 11:37 41.86683 -72.04797 33502 ft 500 kts 56°
2026-05-06 11:37 41.88489 -72.00739 33713 ft 500 kts 56°
2026-05-06 11:37 41.90269 -71.96735 33914 ft 500 kts 56°
2026-05-06 11:37 41.92056 -71.92709 34153 ft 499 kts 56°
2026-05-06 11:38 41.93826 -71.88713 34347 ft 499 kts 56°
2026-05-06 11:38 41.95629 -71.84647 34590 ft 498 kts 56°
2026-05-06 11:38 41.97410 -71.80716 34856 ft 496 kts 55°
2026-05-06 11:39 42.01141 -71.72821 34924 ft 499 kts 53°
2026-05-06 11:39 42.04919 -71.64926 34936 ft 497 kts 53°
2026-05-06 11:40 42.08655 -71.57082 34931 ft 494 kts 54°
2026-05-06 11:40 42.12288 -71.49419 34922 ft 493 kts 54°
2026-05-06 11:41 42.15985 -71.41597 34925 ft 492 kts 54°
2026-05-06 11:41 42.19657 -71.33799 34936 ft 491 kts 55°
2026-05-06 11:42 42.23337 -71.25958 34936 ft 492 kts 54°
2026-05-06 11:42 42.27022 -71.18084 34935 ft 491 kts 55°
2026-05-06 11:43 42.30664 -71.10274 34922 ft 491 kts 55°
2026-05-06 11:43 42.34295 -71.02425 34912 ft 491 kts 57°
2026-05-06 11:44 42.36905 -70.93861 34924 ft 494 kts 72°
2026-05-06 11:44 42.37894 -70.89384 34932 ft 494 kts 72°
2026-05-06 11:44 42.39856 -70.80491 34921 ft 494 kts 72°
2026-05-06 11:45 42.41806 -70.71581 34921 ft 495 kts 72°
2026-05-06 11:45 42.43744 -70.62656 34931 ft 494 kts 72°
2026-05-06 11:46 42.45660 -70.53780 34928 ft 492 kts 72°
2026-05-06 11:46 42.47561 -70.44920 34926 ft 489 kts 72°
2026-05-06 11:47 42.49449 -70.36076 34934 ft 488 kts 72°
2026-05-06 11:47 42.51329 -70.27218 34943 ft 487 kts 72°
2026-05-06 11:48 42.53191 -70.18404 34938 ft 488 kts 73°
2026-05-06 11:48 42.55052 -70.09551 34944 ft 487 kts 73°
2026-05-06 11:49 42.56894 -70.00748 34950 ft 487 kts 72°
2026-05-06 11:49 42.58732 -69.91922 34951 ft 487 kts 72°
2026-05-06 11:50 42.60571 -69.83056 34952 ft 487 kts 72°
2026-05-06 11:50 42.62395 -69.74216 34964 ft 487 kts 72°
2026-05-06 11:51 42.64217 -69.65346 34966 ft 487 kts 72°
2026-05-06 11:51 42.66026 -69.56504 34974 ft 486 kts 72°
2026-05-06 11:52 42.67827 -69.47663 34969 ft 486 kts 72°
2026-05-06 11:52 42.69627 -69.38784 34968 ft 486 kts 72°
2026-05-06 11:53 42.71372 -69.30138 34972 ft 486 kts 73°
2026-05-06 11:53 42.73158 -69.21251 35000 ft 485 kts 72°
2026-05-06 11:54 42.74931 -69.12391 34982 ft 486 kts 73°
2026-05-06 11:54 42.76699 -69.03512 34977 ft 487 kts 73°
2026-05-06 11:55 42.78469 -68.94586 34967 ft 487 kts 72°
2026-05-06 11:56 42.82083 -68.76229 34984 ft 486 kts 72°
2026-05-06 11:56 42.83829 -68.67299 34979 ft 485 kts 72°
2026-05-06 11:57 42.85568 -68.58363 34986 ft 485 kts 72°
2026-05-06 11:57 42.87291 -68.49473 34993 ft 485 kts 72°
2026-05-06 11:58 42.89011 -68.40555 34986 ft 486 kts 72°
2026-05-06 11:58 42.90726 -68.31619 34983 ft 485 kts 72°
2026-05-06 11:59 42.92425 -68.22726 34977 ft 484 kts 72°
2026-05-06 11:59 42.94112 -68.13856 34975 ft 482 kts 72°
2026-05-06 12:00 42.95782 -68.05038 34983 ft 484 kts 72°
2026-05-06 12:00 42.97459 -67.96136 34998 ft 483 kts 72°
2026-05-06 12:01 42.99121 -67.87274 34997 ft 481 kts 72°
2026-05-06 12:01 43.00774 -67.78419 35007 ft 480 kts 72°
2026-05-06 12:02 43.02422 -67.69553 35002 ft 480 kts 72°
2026-05-06 12:02 43.04044 -67.60780 35036 ft 478 kts 73°
2026-05-06 12:03 43.05669 -67.51954 35030 ft 478 kts 73°
2026-05-06 12:03 43.07281 -67.43157 35041 ft 478 kts 72°
2026-05-06 12:04 43.08897 -67.34295 35038 ft 477 kts 73°
2026-05-06 12:04 43.10490 -67.25520 35046 ft 476 kts 73°
2026-05-06 12:05 43.12084 -67.16693 35043 ft 475 kts 74°
2026-05-06 12:05 43.13660 -67.07929 35057 ft 474 kts 74°
2026-05-06 12:06 43.15848 -66.99452 35066 ft 468 kts 60°
2026-05-06 12:06 43.19330 -66.92065 35059 ft 463 kts 49°
2026-05-06 12:07 43.23183 -66.85014 35055 ft 463 kts 49°
2026-05-06 12:07 43.27037 -66.77925 35065 ft 464 kts 49°
2026-05-06 12:08 43.30935 -66.70733 35059 ft 465 kts 49°
2026-05-06 12:08 43.34800 -66.63580 35057 ft 466 kts 49°
2026-05-06 12:09 43.38651 -66.56432 35062 ft 468 kts 49°
2026-05-06 12:09 43.42521 -66.49230 35056 ft 469 kts 49°
2026-05-06 12:10 43.46396 -66.41998 35041 ft 470 kts 50°
2026-05-06 12:10 43.50291 -66.34710 35051 ft 470 kts 50°
2026-05-06 12:11 43.54167 -66.27437 35048 ft 470 kts 50°
2026-05-06 12:11 43.58025 -66.20180 35049 ft 470 kts 50°
2026-05-06 12:12 43.61864 -66.12941 35058 ft 470 kts 50°
2026-05-06 12:12 43.65740 -66.05614 35050 ft 471 kts 50°
2026-05-06 12:13 43.69603 -65.98293 35054 ft 472 kts 50°
2026-05-06 12:13 43.73481 -65.90925 35047 ft 472 kts 51°
2026-05-06 12:14 43.77343 -65.83568 35056 ft 471 kts 51°
2026-05-06 12:14 43.81187 -65.76228 35049 ft 472 kts 51°
2026-05-06 12:15 43.85022 -65.68885 35045 ft 472 kts 50°
2026-05-06 12:15 43.88885 -65.61472 35061 ft 472 kts 51°
2026-05-06 12:16 43.92727 -65.54080 35068 ft 473 kts 51°
2026-05-06 12:16 43.96566 -65.46676 35061 ft 473 kts 51°
2026-05-06 12:17 44.00441 -65.39181 35070 ft 474 kts 51°
2026-05-06 12:17 44.04324 -65.31655 35087 ft 474 kts 52°
2026-05-06 12:18 44.08197 -65.24125 35074 ft 475 kts 52°
2026-05-06 12:18 44.12015 -65.16686 35071 ft 475 kts 52°
2026-05-06 12:19 44.15888 -65.09120 35054 ft 476 kts 52°
2026-05-06 12:19 44.19729 -65.01596 35073 ft 476 kts 52°
2026-05-06 12:20 44.23550 -64.94093 35060 ft 477 kts 52°
2026-05-06 12:20 44.27409 -64.86494 35067 ft 477 kts 52°
2026-05-06 12:21 44.31236 -64.78941 35059 ft 477 kts 52°
2026-05-06 12:21 44.35054 -64.71383 35059 ft 474 kts 51°
2026-05-06 12:22 44.38837 -64.63877 35062 ft 471 kts 51°
2026-05-06 12:22 44.42600 -64.56391 35068 ft 471 kts 51°
2026-05-06 12:23 44.46366 -64.48881 35059 ft 472 kts 52°
2026-05-06 12:23 44.50181 -64.41253 35063 ft 472 kts 51°
2026-05-06 12:24 44.53968 -64.33660 35051 ft 473 kts 52°
2026-05-06 12:24 44.57745 -64.26068 35078 ft 471 kts 52°
2026-05-06 12:25 44.61505 -64.18491 35075 ft 471 kts 52°
2026-05-06 12:25 44.65258 -64.10908 35067 ft 471 kts 52°
2026-05-06 12:26 44.69010 -64.03309 35057 ft 472 kts 52°
2026-05-06 12:26 44.72752 -63.95709 35072 ft 474 kts 52°
2026-05-06 12:27 44.76499 -63.88079 35072 ft 473 kts 52°
2026-05-06 12:27 44.80241 -63.80439 35071 ft 473 kts 52°
2026-05-06 12:28 44.83964 -63.72814 35073 ft 472 kts 52°
2026-05-06 12:28 44.87706 -63.65134 35088 ft 471 kts 52°
2026-05-06 12:29 44.91414 -63.57505 35083 ft 471 kts 52°
2026-05-06 12:29 44.95114 -63.49868 35083 ft 470 kts 52°
2026-05-06 12:30 44.98806 -63.42230 35077 ft 470 kts 52°
2026-05-06 12:30 45.02482 -63.34605 35073 ft 470 kts 53°
2026-05-06 12:31 45.06165 -63.26944 35105 ft 468 kts 53°
2026-05-06 12:31 45.09833 -63.19295 35094 ft 468 kts 53°
2026-05-06 12:32 45.13470 -63.11690 35098 ft 467 kts 53°
2026-05-06 12:32 45.17120 -63.04038 35072 ft 467 kts 53°
2026-05-06 12:33 45.20764 -62.96380 35090 ft 466 kts 53°
2026-05-06 12:33 45.24379 -62.88760 35084 ft 466 kts 53°
2026-05-06 12:34 45.27976 -62.81160 35088 ft 466 kts 53°
2026-05-06 12:34 45.31575 -62.73534 35081 ft 466 kts 53°
2026-05-06 12:35 45.35190 -62.65855 35067 ft 467 kts 53°
2026-05-06 12:35 45.38788 -62.58191 35088 ft 466 kts 53°
2026-05-06 12:36 45.42410 -62.50459 35058 ft 467 kts 53°
2026-05-06 12:36 45.45998 -62.42773 35065 ft 467 kts 53°
2026-05-06 12:37 45.49609 -62.35019 35069 ft 466 kts 53°
2026-05-06 12:37 45.53196 -62.27297 35044 ft 466 kts 54°
2026-05-06 12:38 45.56755 -62.19611 35055 ft 466 kts 54°
2026-05-06 12:38 45.60318 -62.11899 35069 ft 465 kts 54°
2026-05-06 12:39 45.63867 -62.04195 35070 ft 465 kts 54°
2026-05-06 12:39 45.67411 -61.96480 35060 ft 464 kts 54°
2026-05-06 12:40 45.70941 -61.88774 35039 ft 464 kts 54°
2026-05-06 12:40 45.74467 -61.81058 35050 ft 464 kts 54°
2026-05-06 12:41 45.78003 -61.73299 35066 ft 464 kts 54°
2026-05-06 12:41 45.81500 -61.65602 35066 ft 464 kts 54°
2026-05-06 12:42 45.85018 -61.57840 35056 ft 463 kts 55°
2026-05-06 12:42 45.88558 -61.50007 35050 ft 462 kts 55°
2026-05-06 12:43 45.92045 -61.42269 35055 ft 461 kts 54°
2026-05-06 12:43 45.95514 -61.34551 35070 ft 461 kts 56°
2026-05-06 12:44 45.98978 -61.26823 35067 ft 460 kts 56°
2026-05-06 12:44 46.02449 -61.19057 35051 ft 460 kts 56°
2026-05-06 12:45 46.05904 -61.11307 35074 ft 459 kts 56°
2026-05-06 12:46 46.11068 -60.99683 35072 ft 459 kts 56°
2026-05-06 12:46 46.14497 -60.91936 35072 ft 459 kts 56°
2026-05-06 12:47 46.17938 -60.84143 35068 ft 459 kts 56°
2026-05-06 12:47 46.21349 -60.76394 35077 ft 459 kts 56°
2026-05-06 12:48 46.24794 -60.68546 35060 ft 460 kts 56°
2026-05-06 12:48 46.28227 -60.60704 35078 ft 461 kts 56°
2026-05-06 12:49 46.31692 -60.52766 35078 ft 461 kts 56°
2026-05-06 12:49 46.35131 -60.44866 35054 ft 463 kts 56°
2026-05-06 12:50 46.38528 -60.37039 35085 ft 462 kts 56°
2026-05-06 12:50 46.41953 -60.29125 35071 ft 463 kts 57°
2026-05-06 12:51 46.45353 -60.21246 35079 ft 464 kts 57°
2026-05-06 12:51 46.48774 -60.13295 35086 ft 465 kts 57°
2026-05-06 12:52 46.52210 -60.05290 35079 ft 465 kts 57°
2026-05-06 12:52 46.55633 -59.97287 35077 ft 465 kts 57°
2026-05-06 12:53 46.59032 -59.89321 35068 ft 466 kts 57°
2026-05-06 12:53 46.62440 -59.81307 35089 ft 465 kts 57°
2026-05-06 12:54 46.65832 -59.73310 35065 ft 465 kts 57°
2026-05-06 12:54 46.69239 -59.65252 35056 ft 465 kts 57°
2026-05-06 12:55 46.72641 -59.57184 35063 ft 465 kts 57°
2026-05-06 12:55 46.76032 -59.49117 35074 ft 465 kts 57°
2026-05-06 12:56 46.79405 -59.41071 35052 ft 466 kts 57°
2026-05-06 12:56 46.82788 -59.32976 35066 ft 466 kts 58°
2026-05-06 12:57 46.86147 -59.24916 35073 ft 467 kts 58°
2026-05-06 12:57 46.89516 -59.16804 35071 ft 466 kts 58°
2026-05-06 12:58 46.92893 -59.08652 35081 ft 466 kts 58°
2026-05-06 12:58 46.96222 -59.00589 35084 ft 464 kts 58°
2026-05-06 12:59 46.99565 -58.92471 35066 ft 461 kts 58°
2026-05-06 12:59 47.02847 -58.84477 35073 ft 459 kts 58°
2026-05-06 13:00 47.06144 -58.76421 35074 ft 460 kts 58°
2026-05-06 13:00 47.09436 -58.68353 35078 ft 460 kts 59°
2026-05-06 13:01 47.12723 -58.60275 35079 ft 460 kts 58°
2026-05-06 13:01 47.15999 -58.52199 35076 ft 460 kts 59°
2026-05-06 13:02 47.19260 -58.44134 35083 ft 459 kts 59°
2026-05-06 13:02 47.22540 -58.36000 35088 ft 459 kts 59°
2026-05-06 13:03 47.25807 -58.27874 35077 ft 460 kts 59°
2026-05-06 13:03 47.29071 -58.19729 35093 ft 460 kts 59°
2026-05-06 13:04 47.32319 -58.11601 35094 ft 460 kts 59°
2026-05-06 13:04 47.35526 -58.03550 35088 ft 461 kts 60°
2026-05-06 13:05 47.38751 -57.95430 35099 ft 461 kts 60°
2026-05-06 13:05 47.41982 -57.87270 35097 ft 461 kts 60°
2026-05-06 13:06 47.45216 -57.79076 35098 ft 460 kts 60°
2026-05-06 13:06 47.48443 -57.70877 35097 ft 460 kts 60°
2026-05-06 13:07 47.51678 -57.62631 35108 ft 460 kts 60°
2026-05-06 13:07 47.54877 -57.54452 35093 ft 460 kts 60°
2026-05-06 13:08 47.58063 -57.46280 35102 ft 460 kts 59°
2026-05-06 13:08 47.61271 -57.38026 35098 ft 460 kts 59°
2026-05-06 13:09 47.64463 -57.29789 35101 ft 460 kts 60°
2026-05-06 13:09 47.67651 -57.21537 35100 ft 460 kts 60°
2026-05-06 13:10 47.70842 -57.13250 35092 ft 460 kts 60°
2026-05-06 13:10 47.74028 -57.04951 35092 ft 460 kts 60°
2026-05-06 13:11 47.77202 -56.96657 35096 ft 460 kts 60°
2026-05-06 13:11 47.80376 -56.88337 35092 ft 461 kts 60°
2026-05-06 13:12 47.83540 -56.80017 35103 ft 461 kts 60°
2026-05-06 13:12 47.86736 -56.71586 35103 ft 461 kts 60°
2026-05-06 13:13 47.89894 -56.63225 35113 ft 461 kts 60°
2026-05-06 13:13 47.93057 -56.54830 35090 ft 462 kts 60°
2026-05-06 13:14 47.96206 -56.46444 35110 ft 462 kts 60°
2026-05-06 13:14 47.99334 -56.38084 35114 ft 463 kts 60°
2026-05-06 13:15 48.02478 -56.29658 35104 ft 463 kts 61°
2026-05-06 13:15 48.05613 -56.21231 35120 ft 463 kts 62°
2026-05-06 13:16 48.08751 -56.12765 35092 ft 465 kts 62°
2026-05-06 13:16 48.11894 -56.04259 35109 ft 464 kts 62°
2026-05-06 13:17 48.15016 -55.95783 35112 ft 463 kts 62°
2026-05-06 13:17 48.18114 -55.87345 35118 ft 463 kts 61°
2026-05-06 13:18 48.21232 -55.78825 35103 ft 463 kts 61°
2026-05-06 13:18 48.24314 -55.70373 35102 ft 463 kts 61°
2026-05-06 13:19 48.27415 -55.61848 35098 ft 463 kts 61°
2026-05-06 13:19 48.30490 -55.53362 35100 ft 463 kts 61°
2026-05-06 13:20 48.33579 -55.44810 35089 ft 464 kts 61°
2026-05-06 13:20 48.36638 -55.36314 35098 ft 464 kts 61°
2026-05-06 13:21 48.39728 -55.27705 35089 ft 464 kts 62°
2026-05-06 13:21 48.42800 -55.19117 35082 ft 465 kts 62°
2026-05-06 13:22 48.45842 -55.10585 35080 ft 464 kts 62°
2026-05-06 13:22 48.48884 -55.02023 35079 ft 464 kts 62°
2026-05-06 13:23 48.51928 -54.93428 35070 ft 464 kts 62°
2026-05-06 13:23 48.54993 -54.84748 35069 ft 465 kts 62°
2026-05-06 13:24 48.58004 -54.76191 35089 ft 465 kts 62°
2026-05-06 13:24 48.61040 -54.67532 35091 ft 465 kts 61°
2026-05-06 13:25 48.64066 -54.58875 35092 ft 466 kts 61°
2026-05-06 13:25 48.67097 -54.50173 35074 ft 467 kts 62°
2026-05-06 13:26 48.70137 -54.41419 35067 ft 467 kts 61°
2026-05-06 13:26 48.73164 -54.32669 35071 ft 468 kts 62°
2026-05-06 13:27 48.76183 -54.23915 35054 ft 467 kts 62°
2026-05-06 13:27 48.79190 -54.15164 35057 ft 468 kts 62°
2026-05-06 13:28 48.82190 -54.06406 35056 ft 468 kts 62°
2026-05-06 13:28 48.85197 -53.97596 35067 ft 467 kts 62°
2026-05-06 13:29 48.88161 -53.88880 35045 ft 468 kts 62°
2026-05-06 13:29 48.91161 -53.80035 35051 ft 469 kts 62°
2026-05-06 13:30 48.94151 -53.71183 35022 ft 471 kts 62°
2026-05-06 13:30 48.97121 -53.62362 35031 ft 470 kts 62°
2026-05-06 13:31 49.00108 -53.53459 35032 ft 470 kts 61°
2026-05-06 13:31 49.03071 -53.44599 35034 ft 470 kts 61°
2026-05-06 13:32 49.06037 -53.35698 35029 ft 470 kts 61°
2026-05-06 13:32 49.08962 -53.26889 35047 ft 470 kts 62°
2026-05-06 13:33 49.11888 -53.18045 35029 ft 471 kts 62°
2026-05-06 13:33 49.14851 -53.09062 35036 ft 471 kts 62°
2026-05-06 13:34 49.17775 -53.00162 35031 ft 472 kts 62°
2026-05-06 13:34 49.20712 -52.91194 35035 ft 472 kts 62°
2026-05-06 13:35 49.23639 -52.82222 35034 ft 471 kts 61°
2026-05-06 13:35 49.26556 -52.73251 35033 ft 470 kts 61°
2026-05-06 13:36 49.29450 -52.64317 35039 ft 469 kts 61°
2026-05-06 13:36 49.32333 -52.55387 35044 ft 469 kts 61°
2026-05-06 13:37 49.35222 -52.46407 35041 ft 466 kts 61°
2026-05-06 13:37 49.38072 -52.37514 35041 ft 462 kts 61°
2026-05-06 13:38 49.40894 -52.28678 35048 ft 461 kts 62°
2026-05-06 13:38 49.43715 -52.19818 35043 ft 461 kts 62°
2026-05-06 13:39 49.46531 -52.10941 35050 ft 460 kts 61°
2026-05-06 13:39 49.49309 -52.02150 35048 ft 459 kts 61°
2026-05-06 13:40 49.51825 -51.93076 35051 ft 459 kts 66°
2026-05-06 13:40 49.54179 -51.83988 35054 ft 459 kts 65°
2026-05-06 13:41 49.56539 -51.74850 35057 ft 459 kts 65°
2026-05-06 13:41 49.58883 -51.65743 35063 ft 459 kts 65°
2026-05-06 13:42 49.61235 -51.56572 35050 ft 460 kts 65°
2026-05-06 13:42 49.63570 -51.47431 35073 ft 459 kts 65°
2026-05-06 13:43 49.65912 -51.38231 35055 ft 458 kts 65°
2026-05-06 13:43 49.68221 -51.29125 35063 ft 457 kts 66°
2026-05-06 13:44 49.70528 -51.19991 35054 ft 458 kts 66°
2026-05-06 13:44 49.72818 -51.10888 35072 ft 457 kts 66°
2026-05-06 13:45 49.75111 -51.01733 35061 ft 456 kts 66°
2026-05-06 13:45 49.78527 -50.88035 35060 ft 457 kts 66°
2026-05-06 13:46 49.80814 -50.78814 35069 ft 457 kts 66°
2026-05-06 13:46 49.83071 -50.69681 35059 ft 457 kts 65°
2026-05-06 13:47 49.85339 -50.60466 35076 ft 456 kts 65°
2026-05-06 13:47 49.87593 -50.51265 35070 ft 456 kts 65°
2026-05-06 13:48 49.89828 -50.42106 35070 ft 455 kts 65°
2026-05-06 13:48 49.92068 -50.32888 35060 ft 456 kts 66°
2026-05-06 13:49 49.94293 -50.23696 35068 ft 457 kts 66°
2026-05-06 13:49 49.96517 -50.14469 35084 ft 456 kts 66°
2026-05-06 13:50 49.98726 -50.05264 35070 ft 457 kts 66°
2026-05-06 13:50 50.00645 -49.95808 35068 ft 461 kts 74°
2026-05-06 13:51 50.02038 -49.86104 35072 ft 461 kts 74°
2026-05-06 13:51 50.03427 -49.76415 35079 ft 461 kts 74°
2026-05-06 13:52 50.04812 -49.66700 35079 ft 462 kts 74°
2026-05-06 13:52 50.06198 -49.56928 35079 ft 461 kts 74°
2026-05-06 13:53 50.07578 -49.47142 35081 ft 461 kts 73°
2026-05-06 13:53 50.08934 -49.37467 35083 ft 460 kts 74°
2026-05-06 13:54 50.10304 -49.27630 35079 ft 460 kts 75°
2026-05-06 13:54 50.11647 -49.17934 35078 ft 460 kts 74°
2026-05-06 13:55 50.12984 -49.08211 35093 ft 460 kts 74°
2026-05-06 13:55 50.14313 -48.98490 35074 ft 461 kts 74°
2026-05-06 13:56 50.15640 -48.88714 35090 ft 461 kts 74°
2026-05-06 13:56 50.16960 -48.78929 35085 ft 460 kts 74°
2026-05-06 13:57 50.18267 -48.69174 35092 ft 459 kts 73°
2026-05-06 13:57 50.19555 -48.59497 35102 ft 459 kts 73°
2026-05-06 13:58 50.20850 -48.49699 35106 ft 459 kts 73°
2026-05-06 13:58 50.22126 -48.39983 35104 ft 458 kts 73°
2026-05-06 13:59 50.23404 -48.30177 35100 ft 458 kts 74°
2026-05-06 13:59 50.24667 -48.20423 35112 ft 459 kts 74°
2026-05-06 14:00 50.25925 -48.10638 35117 ft 458 kts 74°
2026-05-06 14:00 50.27165 -48.00928 35119 ft 457 kts 74°
2026-05-06 14:01 50.28401 -47.91183 35124 ft 457 kts 74°
2026-05-06 14:01 50.29628 -47.81440 35112 ft 457 kts 73°
2026-05-06 14:02 50.30844 -47.71710 35120 ft 458 kts 73°
2026-05-06 14:02 50.32057 -47.61937 35124 ft 458 kts 73°
2026-05-06 14:03 50.33259 -47.52175 35126 ft 458 kts 73°
2026-05-06 14:03 50.34458 -47.42373 35124 ft 458 kts 73°
2026-05-06 14:04 50.35652 -47.32527 35119 ft 457 kts 74°
2026-05-06 14:04 50.36833 -47.22732 35115 ft 458 kts 73°
2026-05-06 14:05 50.38004 -47.12940 35118 ft 458 kts 73°
2026-05-06 14:05 50.39172 -47.03095 35114 ft 458 kts 73°
2026-05-06 14:06 50.40324 -46.93314 35121 ft 458 kts 73°
2026-05-06 14:06 50.41471 -46.83505 35122 ft 459 kts 73°
2026-05-06 14:07 50.42622 -46.73579 35116 ft 459 kts 73°
2026-05-06 14:07 50.43760 -46.63697 35121 ft 459 kts 72°
2026-05-06 14:08 50.44887 -46.53831 35135 ft 462 kts 73°
2026-05-06 14:08 50.46025 -46.43807 35424 ft 468 kts 73°
2026-05-06 14:09 50.46581 -46.38854 35743 ft 465 kts 73°
2026-05-06 14:09 50.47139 -46.33866 36073 ft 462 kts 73°
2026-05-06 14:09 50.47689 -46.28929 36342 ft 461 kts 74°
2026-05-06 14:09 50.48244 -46.23935 36548 ft 461 kts 74°
2026-05-06 14:10 50.48791 -46.19003 36739 ft 461 kts 74°
2026-05-06 14:10 50.49337 -46.14053 36957 ft 460 kts 74°
2026-05-06 14:10 50.49876 -46.09148 37137 ft 461 kts 74°
2026-05-06 14:10 50.50428 -46.04118 37118 ft 465 kts 74°
2026-05-06 14:11 50.51517 -45.94102 37134 ft 467 kts 74°
2026-05-06 14:11 50.52603 -45.84022 37135 ft 467 kts 74°
2026-05-06 14:12 50.53677 -45.73972 37132 ft 467 kts 74°
2026-05-06 14:12 50.54749 -45.63858 37126 ft 466 kts 74°
2026-05-06 14:13 50.55803 -45.53809 37137 ft 465 kts 74°
2026-05-06 14:13 50.56845 -45.43811 37129 ft 465 kts 74°
2026-05-06 14:14 50.57882 -45.33761 37120 ft 464 kts 74°
2026-05-06 14:14 50.58908 -45.23731 37128 ft 463 kts 74°
2026-05-06 14:15 50.59918 -45.13782 37133 ft 464 kts 75°
2026-05-06 14:15 50.60932 -45.03694 37135 ft 465 kts 74°
2026-05-06 14:16 50.61937 -44.93615 37132 ft 464 kts 74°
2026-05-06 14:16 50.62918 -44.83679 37130 ft 465 kts 74°
2026-05-06 14:17 50.63906 -44.73569 37134 ft 465 kts 74°
2026-05-06 14:17 50.64880 -44.63513 37135 ft 464 kts 74°
2026-05-06 14:18 50.65280 -44.59353 37138 ft 464 kts 74°
2026-05-06 14:18 50.66244 -44.49262 37135 ft 464 kts 74°
2026-05-06 14:19 50.67193 -44.39245 37135 ft 464 kts 73°
2026-05-06 14:19 50.68134 -44.29211 37133 ft 464 kts 75°
2026-05-06 14:20 50.69068 -44.19152 37145 ft 464 kts 75°
2026-05-06 14:20 50.70001 -44.09019 37156 ft 465 kts 75°
2026-05-06 14:21 50.70917 -43.98959 37159 ft 465 kts 75°
2026-05-06 14:21 50.71830 -43.88834 37160 ft 466 kts 75°
2026-05-06 14:22 50.72733 -43.78733 37141 ft 466 kts 74°
2026-05-06 14:22 50.73632 -43.68554 37132 ft 467 kts 75°
2026-05-06 14:23 50.74518 -43.58421 37154 ft 468 kts 75°
2026-05-06 14:23 50.75399 -43.48232 37140 ft 467 kts 75°
2026-05-06 14:24 50.76270 -43.38070 37120 ft 467 kts 74°
2026-05-06 14:24 50.77134 -43.27860 37148 ft 467 kts 76°
2026-05-06 14:25 50.77985 -43.17705 37127 ft 467 kts 75°
2026-05-06 14:25 50.78828 -43.07531 37131 ft 467 kts 76°
2026-05-06 14:26 50.79660 -42.97400 37129 ft 468 kts 75°
2026-05-06 14:26 50.80486 -42.87203 37149 ft 468 kts 75°
2026-05-06 14:27 50.81308 -42.76951 37164 ft 468 kts 75°
2026-05-06 14:27 50.82119 -42.66734 37125 ft 468 kts 75°
2026-05-06 14:28 50.82915 -42.56568 37142 ft 468 kts 75°
2026-05-06 14:28 50.83705 -42.46364 37118 ft 468 kts 75°
2026-05-06 14:29 50.84487 -42.36149 37136 ft 467 kts 75°
2026-05-06 14:29 50.85256 -42.25971 37139 ft 466 kts 76°
2026-05-06 14:30 50.86021 -42.15749 37146 ft 467 kts 77°
2026-05-06 14:30 50.86780 -42.05469 37138 ft 467 kts 76°
2026-05-06 14:31 50.87528 -41.95217 37129 ft 466 kts 76°
2026-05-06 14:31 50.88253 -41.85131 37121 ft 462 kts 76°
2026-05-06 14:32 50.88976 -41.74984 37145 ft 462 kts 76°
2026-05-06 14:32 50.89685 -41.64906 37134 ft 463 kts 76°
2026-05-06 14:33 50.90387 -41.54777 37132 ft 463 kts 76°
2026-05-06 14:33 50.91085 -41.44595 37137 ft 463 kts 77°
2026-05-06 14:34 50.91770 -41.34466 37140 ft 462 kts 77°
2026-05-06 14:34 50.92452 -41.24262 37206 ft 467 kts 77°
2026-05-06 14:35 50.93122 -41.14059 37135 ft 462 kts 77°
2026-05-06 14:35 50.93778 -41.03951 37131 ft 462 kts 77°
2026-05-06 14:36 50.94427 -40.93822 37118 ft 464 kts 77°
2026-05-06 14:36 50.95070 -40.83659 37145 ft 464 kts 77°
2026-05-06 14:37 50.95704 -40.73472 37124 ft 465 kts 77°
2026-05-06 14:37 50.96331 -40.63270 37138 ft 465 kts 77°
2026-05-06 14:38 50.96949 -40.53037 37134 ft 464 kts 77°
2026-05-06 14:38 50.97554 -40.42899 37131 ft 464 kts 78°
2026-05-06 14:39 50.98152 -40.32715 37133 ft 464 kts 78°
2026-05-06 14:39 50.98738 -40.22567 37142 ft 463 kts 78°
2026-05-06 14:40 50.99316 -40.12420 37137 ft 463 kts 79°
2026-05-06 14:40 50.99888 -40.02253 37149 ft 462 kts 78°
2026-05-06 14:41 51.01088 -39.92333 37143 ft 456 kts 70°
2026-05-06 14:41 51.02507 -39.82545 37126 ft 456 kts 70°
2026-05-06 14:42 51.03930 -39.72651 37123 ft 457 kts 70°
2026-05-06 14:42 51.05335 -39.62804 37127 ft 457 kts 71°
2026-05-06 14:43 51.06731 -39.52944 37119 ft 457 kts 71°
2026-05-06 14:43 51.08115 -39.43107 37129 ft 456 kts 71°
2026-05-06 14:44 51.09495 -39.33219 37120 ft 456 kts 72°
2026-05-06 14:45 51.11547 -39.18404 37118 ft 456 kts 72°
2026-05-06 14:45 51.12896 -39.08579 37109 ft 456 kts 72°
2026-05-06 14:46 51.14245 -38.98679 37110 ft 455 kts 72°
2026-05-06 14:46 51.15583 -38.88795 37118 ft 456 kts 72°
2026-05-06 14:47 51.16899 -38.79009 37112 ft 456 kts 73°
2026-05-06 14:47 51.18219 -38.69124 37111 ft 456 kts 72°
2026-05-06 14:48 51.19532 -38.59230 37113 ft 456 kts 73°
2026-05-06 14:48 51.20832 -38.49358 37113 ft 457 kts 73°
2026-05-06 14:49 51.22134 -38.39405 37110 ft 457 kts 73°
2026-05-06 14:49 51.23417 -38.29520 37110 ft 456 kts 73°
2026-05-06 14:50 51.24692 -38.19637 37109 ft 456 kts 74°
2026-05-06 14:50 51.25955 -38.09771 37104 ft 456 kts 74°
2026-05-06 14:51 51.27223 -37.99799 37113 ft 455 kts 74°
2026-05-06 14:51 51.28471 -37.89910 37104 ft 455 kts 75°
2026-05-06 14:52 51.29713 -37.80000 37107 ft 455 kts 74°
2026-05-06 14:52 51.30948 -37.70069 37105 ft 455 kts 75°
2026-05-06 14:53 51.32170 -37.60173 37098 ft 454 kts 75°
2026-05-06 14:53 51.33379 -37.50313 37104 ft 455 kts 75°
2026-05-06 14:54 51.34594 -37.40325 37102 ft 454 kts 75°
2026-05-06 14:54 51.35792 -37.30411 37100 ft 454 kts 75°
2026-05-06 14:55 51.36974 -37.20551 37097 ft 453 kts 76°
2026-05-06 14:55 51.38155 -37.10622 37092 ft 453 kts 76°
2026-05-06 14:56 51.39322 -37.00738 37092 ft 453 kts 76°
2026-05-06 14:56 51.40489 -36.90780 37091 ft 452 kts 76°
2026-05-06 14:57 51.41643 -36.80856 37089 ft 452 kts 76°
2026-05-06 14:57 51.42783 -36.70976 37089 ft 452 kts 76°
2026-05-06 14:58 51.43914 -36.61100 37087 ft 452 kts 76°
2026-05-06 14:58 51.45037 -36.51220 37088 ft 452 kts 76°
2026-05-06 14:59 51.46154 -36.41310 37084 ft 452 kts 76°
2026-05-06 14:59 51.47263 -36.31393 37083 ft 452 kts 77°
2026-05-06 15:00 51.48359 -36.21511 37084 ft 452 kts 77°
2026-05-06 15:00 51.49455 -36.11559 37083 ft 451 kts 77°
2026-05-06 15:01 51.50537 -36.01640 37076 ft 451 kts 77°
2026-05-06 15:01 51.51613 -35.91698 37071 ft 451 kts 77°
2026-05-06 15:02 51.52675 -35.81809 37071 ft 452 kts 77°
2026-05-06 15:02 51.53734 -35.71864 37072 ft 452 kts 77°
2026-05-06 15:03 51.54783 -35.61930 37078 ft 453 kts 77°
2026-05-06 15:03 51.55827 -35.51964 37084 ft 453 kts 77°
2026-05-06 15:04 51.56860 -35.42013 37083 ft 453 kts 78°
2026-05-06 15:04 51.57883 -35.32064 37079 ft 453 kts 78°
2026-05-06 15:05 51.58902 -35.22079 37076 ft 453 kts 79°
2026-05-06 15:05 51.59909 -35.12123 37074 ft 454 kts 79°
2026-05-06 15:06 51.60911 -35.02126 37072 ft 454 kts 79°
2026-05-06 15:06 51.61906 -34.92111 37073 ft 454 kts 79°
2026-05-06 15:07 51.62892 -34.82099 37071 ft 454 kts 79°
2026-05-06 15:07 51.63873 -34.72041 37072 ft 453 kts 79°
2026-05-06 15:08 51.64836 -34.62084 37072 ft 453 kts 79°
2026-05-06 15:08 51.65794 -34.52076 37072 ft 453 kts 79°
2026-05-06 15:09 51.66746 -34.42052 37068 ft 453 kts 79°
2026-05-06 15:09 51.67681 -34.32107 37062 ft 451 kts 80°
2026-05-06 15:10 51.68611 -34.22121 37061 ft 450 kts 80°
2026-05-06 15:10 51.69534 -34.12117 37060 ft 450 kts 80°
2026-05-06 15:11 51.70440 -34.02198 37057 ft 447 kts 80°
2026-05-06 15:11 51.71330 -33.92357 37053 ft 444 kts 80°
2026-05-06 15:12 51.72212 -33.82520 37056 ft 443 kts 80°
2026-05-06 15:12 51.73084 -33.72695 37056 ft 444 kts 80°
2026-05-06 15:13 51.73953 -33.62823 37055 ft 445 kts 80°
2026-05-06 15:13 51.74811 -33.52962 37054 ft 445 kts 80°
2026-05-06 15:14 51.75659 -33.43120 37052 ft 445 kts 80°
2026-05-06 15:14 51.76502 -33.33238 37052 ft 445 kts 81°
2026-05-06 15:15 51.77340 -33.23322 37055 ft 444 kts 81°
2026-05-06 15:15 51.78160 -33.13498 37053 ft 444 kts 81°
2026-05-06 15:16 51.78980 -33.03593 37052 ft 444 kts 81°
2026-05-06 15:16 51.79786 -32.93744 37051 ft 445 kts 81°
2026-05-06 15:17 51.80590 -32.83817 37046 ft 445 kts 81°
2026-05-06 15:17 51.81385 -32.73898 37050 ft 445 kts 81°
2026-05-06 15:18 51.82168 -32.64015 37048 ft 444 kts 81°
2026-05-06 15:18 51.82943 -32.54121 37045 ft 444 kts 82°
2026-05-06 15:19 51.83710 -32.44232 37040 ft 444 kts 82°
2026-05-06 15:19 51.84468 -32.34346 37036 ft 444 kts 82°
2026-05-06 15:20 51.85222 -32.24408 37036 ft 444 kts 82°
2026-05-06 15:20 51.85960 -32.14544 37029 ft 444 kts 82°
2026-05-06 15:21 51.86698 -32.04579 37033 ft 444 kts 82°
2026-05-06 15:21 51.87424 -31.94675 37031 ft 444 kts 83°
2026-05-06 15:22 51.88141 -31.84763 37028 ft 445 kts 83°
2026-05-06 15:22 51.88850 -31.74854 37020 ft 444 kts 83°
2026-05-06 15:23 51.89554 -31.64876 37024 ft 443 kts 83°
2026-05-06 15:23 51.90245 -31.54970 37015 ft 443 kts 83°
2026-05-06 15:24 51.90929 -31.45057 37003 ft 444 kts 83°
2026-05-06 15:24 51.91604 -31.35134 36994 ft 444 kts 83°
2026-05-06 15:25 51.92271 -31.25210 37003 ft 444 kts 84°
2026-05-06 15:25 51.92928 -31.15295 36988 ft 445 kts 84°
2026-05-06 15:26 51.93576 -31.05404 36991 ft 445 kts 84°
2026-05-06 15:26 51.94224 -30.95378 36996 ft 444 kts 84°
2026-05-06 15:27 51.94855 -30.85474 36991 ft 444 kts 84°
2026-05-06 15:27 51.95484 -30.75471 36987 ft 444 kts 84°
2026-05-06 15:28 51.96102 -30.65508 36974 ft 444 kts 84°
2026-05-06 15:28 51.96708 -30.55620 36981 ft 443 kts 84°
2026-05-06 15:29 51.97307 -30.45681 36979 ft 444 kts 84°
2026-05-06 15:29 51.97897 -30.35771 36973 ft 444 kts 84°
2026-05-06 15:30 51.98480 -30.25818 36970 ft 444 kts 85°
2026-05-06 15:30 51.99056 -30.15854 36964 ft 444 kts 85°
2026-05-06 15:31 51.99621 -30.05930 36973 ft 444 kts 85°
2026-05-06 15:31 52.00488 -29.96001 36973 ft 443 kts 76°
2026-05-06 15:32 52.02607 -29.81445 36965 ft 444 kts 77°
2026-05-06 15:32 52.04004 -29.71737 36958 ft 444 kts 77°
2026-05-06 15:33 52.05393 -29.62002 36954 ft 444 kts 77°
2026-05-06 15:33 52.06778 -29.52228 36957 ft 443 kts 77°
2026-05-06 15:34 52.08145 -29.42517 36947 ft 443 kts 77°
2026-05-06 15:34 52.09517 -29.32698 36931 ft 443 kts 77°
2026-05-06 15:35 52.10870 -29.22946 36931 ft 443 kts 78°
2026-05-06 15:35 52.12211 -29.13217 36939 ft 443 kts 78°
2026-05-06 15:36 52.13543 -29.03484 36922 ft 443 kts 78°
2026-05-06 15:36 52.14874 -28.93699 36924 ft 443 kts 78°
2026-05-06 15:37 52.16192 -28.83938 36924 ft 443 kts 78°
2026-05-06 15:37 52.17518 -28.74047 36922 ft 443 kts 78°
2026-05-06 15:38 52.18823 -28.64253 36924 ft 443 kts 78°
2026-05-06 15:38 52.20119 -28.54453 36922 ft 443 kts 78°
2026-05-06 15:39 52.21406 -28.44655 36927 ft 444 kts 78°
2026-05-06 15:39 52.22682 -28.34873 36923 ft 444 kts 78°
2026-05-06 15:40 52.23960 -28.25008 36930 ft 443 kts 78°
2026-05-06 15:40 52.25223 -28.15190 36932 ft 443 kts 78°
2026-05-06 15:41 52.26471 -28.05420 36935 ft 443 kts 79°
2026-05-06 15:41 52.27722 -27.95549 36936 ft 444 kts 79°
2026-05-06 15:42 52.28959 -27.85722 36932 ft 444 kts 79°
2026-05-06 15:42 52.30186 -27.75904 36939 ft 444 kts 79°
2026-05-06 15:43 52.31415 -27.66003 36939 ft 444 kts 79°
2026-05-06 15:43 52.32632 -27.56123 36938 ft 444 kts 79°
2026-05-06 15:44 52.33837 -27.46265 36949 ft 444 kts 79°
2026-05-06 15:44 52.35029 -27.36443 36943 ft 444 kts 79°
2026-05-06 15:45 52.36224 -27.26522 36950 ft 444 kts 80°
2026-05-06 15:45 52.37409 -27.16612 36952 ft 445 kts 79°
2026-05-06 15:46 52.38586 -27.06689 36955 ft 445 kts 80°
2026-05-06 15:46 52.39756 -26.96756 36953 ft 445 kts 80°
2026-05-06 15:47 52.40910 -26.86882 36958 ft 445 kts 80°
2026-05-06 15:47 52.42065 -26.76923 36957 ft 444 kts 80°
2026-05-06 15:48 52.43201 -26.67045 36964 ft 444 kts 80°
2026-05-06 15:48 52.44340 -26.57064 36965 ft 444 kts 80°
2026-05-06 15:49 52.45469 -26.47102 36967 ft 444 kts 80°
2026-05-06 15:49 52.46588 -26.37141 36969 ft 445 kts 80°
2026-05-06 15:50 52.47698 -26.27176 36974 ft 445 kts 81°
2026-05-06 15:50 52.48799 -26.17212 36974 ft 445 kts 81°
2026-05-06 15:51 52.49894 -26.07229 36978 ft 445 kts 81°
2026-05-06 15:51 52.50978 -25.97263 36979 ft 445 kts 81°
2026-05-06 15:52 52.52054 -25.87289 36978 ft 445 kts 81°
2026-05-06 15:52 52.53123 -25.77293 36979 ft 442 kts 81°
2026-05-06 15:53 52.54120 -25.67898 36983 ft 439 kts 81°
2026-05-06 15:53 52.55155 -25.58061 36983 ft 439 kts 81°
2026-05-06 15:54 52.56189 -25.48153 36985 ft 439 kts 81°
2026-05-06 15:54 52.57210 -25.38277 36987 ft 439 kts 81°
2026-05-06 15:55 52.58226 -25.28367 36987 ft 439 kts 82°
2026-05-06 15:55 52.59228 -25.18517 36989 ft 439 kts 82°
2026-05-06 15:56 52.60223 -25.08645 36990 ft 439 kts 82°
2026-05-06 15:56 52.61209 -24.98775 36992 ft 438 kts 82°
2026-05-06 15:57 52.62189 -24.88877 36993 ft 438 kts 82°
2026-05-06 15:57 52.63157 -24.79021 36986 ft 438 kts 82°
2026-05-06 15:58 52.64118 -24.69130 36985 ft 438 kts 82°
2026-05-06 15:58 52.65072 -24.59238 36987 ft 438 kts 82°
2026-05-06 15:59 52.66018 -24.49326 36989 ft 438 kts 82°
2026-05-06 15:59 52.66949 -24.39494 36985 ft 438 kts 82°
2026-05-06 16:00 52.67881 -24.29551 37000 ft 438 kts 83°
2026-05-06 16:00 52.68796 -24.19701 37003 ft 438 kts 83°
2026-05-06 16:01 52.69707 -24.09800 37009 ft 437 kts 83°
2026-05-06 16:01 52.70607 -23.99933 37007 ft 437 kts 83°
2026-05-06 16:02 52.71496 -23.90084 37001 ft 436 kts 83°
2026-05-06 16:02 52.72383 -23.80161 37002 ft 437 kts 83°
2026-05-06 16:03 52.73254 -23.70314 37006 ft 437 kts 83°
2026-05-06 16:03 52.74123 -23.60409 37004 ft 436 kts 83°
2026-05-06 16:04 52.74557 -23.55425 36771 ft 433 kts 83°
2026-05-06 16:04 52.74981 -23.50537 36971 ft 432 kts 83°
2026-05-06 16:04 52.75827 -23.40674 37018 ft 441 kts 83°
2026-05-06 16:05 52.76681 -23.30631 37011 ft 441 kts 84°
2026-05-06 16:05 52.77523 -23.20632 37013 ft 438 kts 84°
2026-05-06 16:06 52.78348 -23.10726 37011 ft 437 kts 84°
2026-05-06 16:06 52.79164 -23.00839 37012 ft 437 kts 84°
2026-05-06 16:07 52.79977 -22.90870 37004 ft 437 kts 84°
2026-05-06 16:07 52.80779 -22.80925 37007 ft 437 kts 84°
2026-05-06 16:08 52.81575 -22.70961 37015 ft 436 kts 84°
2026-05-06 16:08 52.82357 -22.61055 37008 ft 436 kts 84°
2026-05-06 16:09 52.83136 -22.51083 37010 ft 436 kts 84°
2026-05-06 16:09 52.83905 -22.41128 37009 ft 435 kts 84°
2026-05-06 16:10 52.84661 -22.31231 37014 ft 434 kts 85°
2026-05-06 16:10 52.85408 -22.21329 37016 ft 434 kts 85°
2026-05-06 16:11 52.86143 -22.11490 37019 ft 433 kts 85°
2026-05-06 16:11 52.86873 -22.01602 37008 ft 434 kts 85°
2026-05-06 16:12 52.87596 -21.91687 37008 ft 434 kts 85°
2026-05-06 16:12 52.88309 -21.81802 37004 ft 433 kts 84°
2026-05-06 16:13 52.89010 -21.71950 37006 ft 433 kts 84°
2026-05-06 16:13 52.89708 -21.62045 36994 ft 433 kts 84°
2026-05-06 16:14 52.90396 -21.52138 37003 ft 432 kts 85°
2026-05-06 16:14 52.91076 -21.42240 36998 ft 433 kts 85°
2026-05-06 16:15 52.91749 -21.32316 36991 ft 433 kts 85°
2026-05-06 16:15 52.92410 -21.22443 36992 ft 433 kts 85°
2026-05-06 16:16 52.93065 -21.12532 36987 ft 432 kts 85°
2026-05-06 16:16 52.93707 -21.02695 36978 ft 432 kts 85°
2026-05-06 16:17 52.94350 -20.92721 36984 ft 433 kts 85°
2026-05-06 16:17 52.94980 -20.82806 36990 ft 433 kts 85°
2026-05-06 16:18 52.95599 -20.72929 36985 ft 432 kts 85°
2026-05-06 16:18 52.96210 -20.63046 36984 ft 432 kts 85°
2026-05-06 16:19 52.96812 -20.53169 36982 ft 432 kts 85°
2026-05-06 16:19 52.97407 -20.43292 36985 ft 432 kts 85°
2026-05-06 16:20 52.97992 -20.33426 36991 ft 432 kts 86°
2026-05-06 16:20 52.98568 -20.23576 36987 ft 432 kts 86°
2026-05-06 16:21 52.99138 -20.13678 36989 ft 432 kts 86°
2026-05-06 16:21 52.99702 -20.03750 36985 ft 432 kts 86°
2026-05-06 16:22 53.00109 -19.93813 36987 ft 431 kts 90°
2026-05-06 16:22 53.00287 -19.83950 36991 ft 430 kts 89°
2026-05-06 16:23 53.00465 -19.74023 36988 ft 429 kts 89°
2026-05-06 16:23 53.00637 -19.64079 36996 ft 429 kts 89°
2026-05-06 16:24 53.00803 -19.54199 36989 ft 429 kts 89°
2026-05-06 16:24 53.00961 -19.44326 36983 ft 428 kts 89°
2026-05-06 16:25 53.01113 -19.34462 36992 ft 428 kts 90°
2026-05-06 16:25 53.01258 -19.24581 36993 ft 428 kts 90°
2026-05-06 16:26 53.01395 -19.14740 36987 ft 428 kts 90°
2026-05-06 16:26 53.01524 -19.04877 36984 ft 428 kts 90°
2026-05-06 16:27 53.01645 -18.95051 36987 ft 428 kts 90°
2026-05-06 16:27 53.01759 -18.85243 36986 ft 428 kts 90°
2026-05-06 16:28 53.01865 -18.75388 36988 ft 427 kts 90°
2026-05-06 16:28 53.01963 -18.65509 36989 ft 428 kts 89°
2026-05-06 16:29 53.02053 -18.55693 36988 ft 428 kts 89°
2026-05-06 16:29 53.02135 -18.45846 36987 ft 428 kts 89°
2026-05-06 16:30 53.02197 -18.37579 36986 ft 428 kts 89°
2026-05-06 16:30 53.02275 -18.26124 36985 ft 428 kts 90°
2026-05-06 16:31 53.02333 -18.16238 36991 ft 428 kts 90°
2026-05-06 16:31 53.02382 -18.06424 36986 ft 428 kts 90°
2026-05-06 16:32 53.02424 -17.96564 36993 ft 428 kts 90°
2026-05-06 16:32 53.02457 -17.86708 36989 ft 427 kts 90°
2026-05-06 16:33 53.02483 -17.76896 36988 ft 428 kts 90°
2026-05-06 16:34 53.02506 -17.62097 36982 ft 428 kts 89°
2026-05-06 16:34 53.02511 -17.52272 36976 ft 428 kts 89°
2026-05-06 16:35 53.02508 -17.42402 36967 ft 428 kts 89°
2026-05-06 16:35 53.02497 -17.32548 36968 ft 427 kts 90°
2026-05-06 16:36 53.02478 -17.22714 36968 ft 427 kts 90°
2026-05-06 16:36 53.02451 -17.12906 36970 ft 427 kts 90°
2026-05-06 16:37 53.02416 -17.03061 36967 ft 426 kts 90°
2026-05-06 16:37 53.02374 -16.93353 36967 ft 423 kts 90°
2026-05-06 16:38 53.02323 -16.83579 36967 ft 421 kts 90°
2026-05-06 16:38 53.02264 -16.73886 36971 ft 421 kts 90°
2026-05-06 16:39 53.02198 -16.64203 36970 ft 421 kts 90°
2026-05-06 16:39 53.02123 -16.54437 36962 ft 420 kts 90°
2026-05-06 16:40 53.02042 -16.44773 36970 ft 420 kts 89°
2026-05-06 16:40 53.01952 -16.35087 36969 ft 420 kts 89°
2026-05-06 16:41 53.01854 -16.25397 36969 ft 420 kts 90°
2026-05-06 16:41 53.01748 -16.15658 36969 ft 420 kts 90°
2026-05-06 16:42 53.01635 -16.05959 36967 ft 420 kts 90°
2026-05-06 16:42 53.01514 -15.96345 36971 ft 419 kts 90°
2026-05-06 16:43 53.01385 -15.86674 36968 ft 419 kts 90°
2026-05-06 16:43 53.01249 -15.77051 36965 ft 419 kts 90°
2026-05-06 16:44 53.01105 -15.67392 36968 ft 419 kts 90°
2026-05-06 16:44 53.00954 -15.57802 36962 ft 419 kts 90°
2026-05-06 16:45 53.00794 -15.48116 36966 ft 419 kts 90°
2026-05-06 16:45 53.00626 -15.38449 36967 ft 419 kts 89°
2026-05-06 16:46 53.00451 -15.28834 36964 ft 418 kts 90°
2026-05-06 16:46 53.00269 -15.19208 36970 ft 418 kts 90°
2026-05-06 16:47 53.00079 -15.09593 36967 ft 417 kts 90°
2026-05-06 16:47 52.99888 -14.99991 36974 ft 416 kts 89°
2026-05-06 16:48 52.99908 -14.90361 36967 ft 416 kts 88°
2026-05-06 16:48 52.99939 -14.80787 36965 ft 416 kts 88°
2026-05-06 16:49 52.99962 -14.71214 36964 ft 417 kts 88°
2026-05-06 16:49 52.99976 -14.61543 36970 ft 417 kts 88°
2026-05-06 16:50 52.99983 -14.51927 36965 ft 417 kts 88°
2026-05-06 16:50 52.99981 -14.42347 36968 ft 417 kts 87°
2026-05-06 16:51 52.99971 -14.32751 36976 ft 417 kts 88°
2026-05-06 16:51 52.99955 -14.23163 36984 ft 417 kts 88°
2026-05-06 16:52 52.99930 -14.13492 37230 ft 422 kts 88°
2026-05-06 16:52 52.99914 -14.08628 37565 ft 420 kts 88°
2026-05-06 16:52 52.99896 -14.03726 37898 ft 419 kts 88°
2026-05-06 16:52 52.99853 -13.98959 38176 ft 419 kts 90°
2026-05-06 16:53 52.99658 -13.94107 38416 ft 420 kts 93°
2026-05-06 16:53 52.99377 -13.89313 38635 ft 421 kts 93°
2026-05-06 16:53 52.99093 -13.84464 38862 ft 421 kts 93°
2026-05-06 16:53 52.98811 -13.79641 38993 ft 424 kts 93°
2026-05-06 16:54 52.98527 -13.74791 38981 ft 429 kts 93°
2026-05-06 16:54 52.97942 -13.64853 38983 ft 434 kts 93°
2026-05-06 16:55 52.97351 -13.54911 38986 ft 434 kts 93°
2026-05-06 16:55 52.96758 -13.45036 38986 ft 432 kts 93°
2026-05-06 16:56 52.96156 -13.35118 38994 ft 431 kts 93°
2026-05-06 16:56 52.95550 -13.25235 38995 ft 431 kts 94°
2026-05-06 16:57 52.94938 -13.15363 38994 ft 432 kts 94°
2026-05-06 16:57 52.94316 -13.05470 38995 ft 432 kts 94°
2026-05-06 16:58 52.93686 -12.95568 38984 ft 432 kts 94°
2026-05-06 16:58 52.93047 -12.85650 38974 ft 432 kts 94°
2026-05-06 16:59 52.92407 -12.75839 38987 ft 431 kts 94°
2026-05-06 16:59 52.91754 -12.65955 38992 ft 431 kts 94°
2026-05-06 17:00 52.91095 -12.56091 38987 ft 431 kts 94°
2026-05-06 17:00 52.90424 -12.46179 38990 ft 431 kts 94°
2026-05-06 17:01 52.89752 -12.36372 39000 ft 431 kts 94°
2026-05-06 17:01 52.89068 -12.26508 38984 ft 431 kts 94°
2026-05-06 17:02 52.88380 -12.16705 38989 ft 431 kts 94°
2026-05-06 17:02 52.87675 -12.06784 38990 ft 431 kts 94°
2026-05-06 17:03 52.86970 -11.96987 38988 ft 431 kts 94°
2026-05-06 17:03 52.86254 -11.87152 38984 ft 431 kts 94°
2026-05-06 17:04 52.85533 -11.77346 38993 ft 431 kts 94°
2026-05-06 17:04 52.84801 -11.67518 38976 ft 431 kts 94°
2026-05-06 17:05 52.84058 -11.57647 38986 ft 431 kts 94°
2026-05-06 17:05 52.83312 -11.47850 38999 ft 431 kts 94°
2026-05-06 17:06 52.82556 -11.38038 38988 ft 430 kts 94°
2026-05-06 17:06 52.81795 -11.28253 38978 ft 430 kts 95°
2026-05-06 17:07 52.81025 -11.18473 38984 ft 430 kts 95°
2026-05-06 17:07 52.80250 -11.08723 38982 ft 430 kts 95°
2026-05-06 17:08 52.79464 -10.98937 38987 ft 430 kts 95°
2026-05-06 17:08 52.78674 -10.89216 38986 ft 430 kts 95°
2026-05-06 17:09 52.77871 -10.79428 38985 ft 430 kts 95°
2026-05-06 17:09 52.77060 -10.69653 38990 ft 430 kts 95°
2026-05-06 17:10 52.76239 -10.59864 38995 ft 431 kts 95°
2026-05-06 17:10 52.75415 -10.50128 39005 ft 430 kts 95°
2026-05-06 17:11 52.74582 -10.40381 38988 ft 430 kts 95°
2026-05-06 17:11 52.73732 -10.30544 38990 ft 430 kts 96°
2026-05-06 17:12 52.72886 -10.20838 38979 ft 430 kts 96°
2026-05-06 17:12 52.72028 -10.11094 38975 ft 431 kts 96°
2026-05-06 17:13 52.71156 -10.01286 38984 ft 431 kts 96°
2026-05-06 17:13 52.70277 -9.91495 38987 ft 431 kts 96°
2026-05-06 17:14 52.69389 -9.81703 38981 ft 432 kts 96°
2026-05-06 17:14 52.68493 -9.71911 38989 ft 431 kts 96°
2026-05-06 17:15 52.67589 -9.62129 38976 ft 431 kts 96°
2026-05-06 17:15 52.66674 -9.52319 38974 ft 431 kts 96°
2026-05-06 17:16 52.65756 -9.42555 38982 ft 431 kts 96°
2026-05-06 17:16 52.64829 -9.32795 38978 ft 431 kts 97°
2026-05-06 17:17 52.63896 -9.23059 38974 ft 431 kts 97°
2026-05-06 17:17 52.62955 -9.13325 38977 ft 432 kts 97°
2026-05-06 17:18 52.62006 -9.03596 38988 ft 432 kts 97°
2026-05-06 17:18 52.61033 -8.93712 38965 ft 433 kts 97°
2026-05-06 17:19 52.60063 -8.83945 38971 ft 432 kts 97°
2026-05-06 17:19 52.59092 -8.74246 38970 ft 432 kts 97°
2026-05-06 17:20 52.58107 -8.64504 38968 ft 432 kts 97°
2026-05-06 17:20 52.57112 -8.54735 38964 ft 432 kts 97°
2026-05-06 17:21 52.56115 -8.45032 38973 ft 432 kts 97°
2026-05-06 17:21 52.55104 -8.35277 38979 ft 433 kts 97°
2026-05-06 17:22 52.54080 -8.25473 38974 ft 433 kts 98°
2026-05-06 17:22 52.53053 -8.15727 38990 ft 433 kts 98°
2026-05-06 17:23 52.52008 -8.05890 38967 ft 433 kts 98°
2026-05-06 17:23 52.50962 -7.96127 38961 ft 432 kts 98°
2026-05-06 17:24 52.49910 -7.86394 38980 ft 432 kts 98°
2026-05-06 17:24 52.48848 -7.76638 38971 ft 433 kts 98°
2026-05-06 17:25 52.47777 -7.66879 38965 ft 433 kts 98°
2026-05-06 17:25 52.46701 -7.57152 38974 ft 434 kts 98°
2026-05-06 17:26 52.45616 -7.47424 38986 ft 434 kts 98°
2026-05-06 17:26 52.44517 -7.37650 38977 ft 434 kts 98°
2026-05-06 17:27 52.43415 -7.27924 38979 ft 434 kts 99°
2026-05-06 17:27 52.42302 -7.18176 38995 ft 433 kts 99°
2026-05-06 17:28 52.41184 -7.08458 38981 ft 434 kts 99°
2026-05-06 17:28 52.40053 -6.98702 38987 ft 434 kts 99°
2026-05-06 17:29 52.38916 -6.88966 38993 ft 435 kts 99°
2026-05-06 17:29 52.37776 -6.79285 38997 ft 435 kts 99°
2026-05-06 17:30 52.36624 -6.69575 38999 ft 435 kts 99°
2026-05-06 17:30 52.35460 -6.59831 38996 ft 435 kts 99°
2026-05-06 17:31 52.34291 -6.50120 38997 ft 435 kts 99°
2026-05-06 17:31 52.33122 -6.40473 38997 ft 436 kts 99°
2026-05-06 17:32 52.31928 -6.30699 39002 ft 435 kts 100°
2026-05-06 17:32 52.30737 -6.21021 39000 ft 436 kts 100°
2026-05-06 17:33 52.29529 -6.11274 38996 ft 436 kts 100°
2026-05-06 17:33 52.28324 -6.01616 39003 ft 436 kts 100°
2026-05-06 17:34 52.27105 -5.91920 38997 ft 436 kts 100°
2026-05-06 17:34 52.25878 -5.82226 39006 ft 436 kts 100°
2026-05-06 17:35 52.24647 -5.72573 39004 ft 436 kts 100°
2026-05-06 17:35 52.23460 -5.62924 39011 ft 436 kts 99°
2026-05-06 17:36 52.21759 -5.48381 39005 ft 436 kts 99°
2026-05-06 17:36 52.20609 -5.38654 39004 ft 437 kts 99°
2026-05-06 17:37 52.19462 -5.29037 39009 ft 434 kts 100°
2026-05-06 17:37 52.18307 -5.19414 39002 ft 431 kts 100°
2026-05-06 17:38 52.17153 -5.09871 39007 ft 430 kts 100°
2026-05-06 17:38 52.15983 -5.00266 39002 ft 431 kts 100°
2026-05-06 17:39 52.14807 -4.90687 38999 ft 431 kts 100°
2026-05-06 17:39 52.13622 -4.81100 38997 ft 432 kts 100°
2026-05-06 17:40 52.12435 -4.71572 39001 ft 432 kts 100°
2026-05-06 17:40 52.11230 -4.61966 38997 ft 432 kts 100°
2026-05-06 17:41 52.10025 -4.52420 38993 ft 432 kts 100°
2026-05-06 17:41 52.08812 -4.42880 38977 ft 431 kts 100°
2026-05-06 17:42 52.07590 -4.33343 38982 ft 431 kts 101°
2026-05-06 17:42 52.06356 -4.23769 38983 ft 431 kts 101°
2026-05-06 17:43 52.05115 -4.14214 38984 ft 431 kts 101°
2026-05-06 17:43 52.03867 -4.04668 38985 ft 432 kts 101°
2026-05-06 17:44 52.02612 -3.95127 38984 ft 432 kts 101°
2026-05-06 17:44 52.01351 -3.85612 38983 ft 432 kts 101°
2026-05-06 17:45 52.00076 -3.76051 38982 ft 432 kts 101°
2026-05-06 17:45 51.98798 -3.66529 38980 ft 432 kts 101°
2026-05-06 17:46 51.97514 -3.57023 38978 ft 431 kts 101°
2026-05-06 17:46 51.96224 -3.47541 38977 ft 432 kts 102°
2026-05-06 17:47 51.94916 -3.37989 38980 ft 432 kts 101°
2026-05-06 17:47 51.93607 -3.28489 38980 ft 432 kts 102°
2026-05-06 17:48 51.92292 -3.19006 38982 ft 432 kts 102°
2026-05-06 17:48 51.90961 -3.09466 38982 ft 432 kts 102°
2026-05-06 17:49 51.89626 -2.99965 38981 ft 432 kts 102°
2026-05-06 17:49 51.88294 -2.90540 38982 ft 431 kts 102°
2026-05-06 17:50 51.86946 -2.81063 38983 ft 431 kts 102°
2026-05-06 17:50 51.85582 -2.71529 38982 ft 431 kts 102°
2026-05-06 17:51 51.84214 -2.62035 38987 ft 432 kts 102°
2026-05-06 17:51 51.82838 -2.52538 38987 ft 433 kts 102°
2026-05-06 17:52 51.81454 -2.43048 38987 ft 433 kts 102°
2026-05-06 17:52 51.80073 -2.33632 38990 ft 432 kts 103°
2026-05-06 17:53 51.78680 -2.24195 38987 ft 432 kts 103°
2026-05-06 17:53 51.77298 -2.14891 38986 ft 431 kts 103°
2026-05-06 17:54 51.75903 -2.05547 38989 ft 431 kts 103°
2026-05-06 17:54 51.74485 -1.96114 38985 ft 432 kts 103°
2026-05-06 17:55 51.73049 -1.86613 38988 ft 432 kts 103°
2026-05-06 17:55 51.71611 -1.77151 38987 ft 433 kts 103°
2026-05-06 17:56 51.70157 -1.67590 38989 ft 432 kts 102°
2026-05-06 17:56 51.68832 -1.58070 38987 ft 433 kts 102°
2026-05-06 17:57 51.67507 -1.48563 38984 ft 432 kts 102°
2026-05-06 17:57 51.66174 -1.39067 38987 ft 432 kts 102°
2026-05-06 17:58 51.64850 -1.29695 38984 ft 432 kts 103°
2026-05-06 17:58 51.63538 -1.20466 38985 ft 432 kts 103°
2026-05-06 17:59 51.62180 -1.10975 38987 ft 433 kts 103°
2026-05-06 17:59 51.60809 -1.01461 38985 ft 433 kts 103°
2026-05-06 18:00 51.59443 -0.92030 38984 ft 433 kts 103°
2026-05-06 18:00 51.58067 -0.82595 38986 ft 433 kts 103°
2026-05-06 18:01 51.56686 -0.73185 38994 ft 433 kts 103°
2026-05-06 18:01 51.55294 -0.63751 38997 ft 432 kts 103°
2026-05-06 18:02 51.53905 -0.54400 38994 ft 432 kts 103°
2026-05-06 18:02 51.52502 -0.45008 38996 ft 432 kts 103°
2026-05-06 18:03 51.51099 -0.35672 38996 ft 433 kts 103°
2026-05-06 18:03 51.49715 -0.26517 38998 ft 433 kts 104°
2026-05-06 18:04 51.48294 -0.17174 38998 ft 433 kts 104°
2026-05-06 18:04 51.46849 -0.07722 38994 ft 433 kts 104°
2026-05-06 18:05 51.45404 0.01667 38997 ft 434 kts 104°
2026-05-06 18:05 51.43935 0.11164 38991 ft 433 kts 104°
2026-05-06 18:06 51.42470 0.20579 38997 ft 433 kts 104°
2026-05-06 18:06 51.41003 0.29952 38985 ft 433 kts 104°
2026-05-06 18:07 51.39736 0.39389 38981 ft 433 kts 101°
2026-05-06 18:07 51.38562 0.48895 38973 ft 432 kts 100°
2026-05-06 18:08 51.37457 0.58379 38969 ft 431 kts 100°
2026-05-06 18:08 51.36367 0.67719 38960 ft 431 kts 101°
2026-05-06 18:09 51.35260 0.77190 38965 ft 431 kts 101°
2026-05-06 18:09 51.34156 0.86600 38950 ft 432 kts 101°
2026-05-06 18:10 51.33043 0.96041 38961 ft 432 kts 101°
2026-05-06 18:10 51.31923 1.05500 38942 ft 431 kts 101°
2026-05-06 18:11 51.30799 1.14936 38958 ft 431 kts 101°
2026-05-06 18:11 51.29669 1.24362 38962 ft 431 kts 101°
2026-05-06 18:12 51.28539 1.33736 38961 ft 431 kts 101°
2026-05-06 18:12 51.27402 1.43104 38960 ft 431 kts 101°
2026-05-06 18:13 51.26259 1.52461 38958 ft 431 kts 101°
2026-05-06 18:13 51.25098 1.61898 38956 ft 432 kts 101°
2026-05-06 18:14 51.23992 1.70837 38959 ft 432 kts 102°
2026-05-06 18:14 51.22780 1.80566 38956 ft 432 kts 102°
2026-05-06 18:15 51.21603 1.89951 38956 ft 431 kts 102°
2026-05-06 18:15 51.20415 1.99354 38957 ft 431 kts 102°
2026-05-06 18:16 51.19222 2.08737 38953 ft 431 kts 102°
2026-05-06 18:16 51.18020 2.18126 38948 ft 431 kts 102°
2026-05-06 18:17 51.16811 2.27509 38946 ft 431 kts 102°
2026-05-06 18:17 51.15593 2.36899 38943 ft 431 kts 102°
2026-05-06 18:18 51.14376 2.46218 38944 ft 431 kts 102°
2026-05-06 18:18 51.13146 2.55581 38940 ft 430 kts 102°
2026-05-06 18:19 51.11916 2.64874 38940 ft 430 kts 102°
2026-05-06 18:19 51.10703 2.73988 38942 ft 430 kts 103°
2026-05-06 18:20 51.09483 2.83093 38946 ft 430 kts 103°
2026-05-06 18:20 51.08224 2.92434 38949 ft 430 kts 103°
2026-05-06 18:21 51.06963 3.01722 38948 ft 431 kts 103°
2026-05-06 18:21 51.05690 3.11047 38946 ft 430 kts 103°
2026-05-06 18:22 51.04415 3.20327 38944 ft 429 kts 103°
2026-05-06 18:22 51.03142 3.29525 38939 ft 429 kts 103°
2026-05-06 18:23 51.01859 3.38747 38941 ft 431 kts 103°
2026-05-06 18:23 51.01201 3.43451 39049 ft 434 kts 103°
2026-05-06 18:23 51.00563 3.48005 39272 ft 434 kts 103°
2026-05-06 18:24 50.99938 3.52449 39535 ft 432 kts 103°
2026-05-06 18:24 50.99263 3.57237 39810 ft 431 kts 103°
2026-05-06 18:24 50.98608 3.61865 40039 ft 430 kts 103°
2026-05-06 18:24 50.97954 3.66470 40228 ft 430 kts 104°
2026-05-06 18:25 50.97314 3.70967 40392 ft 430 kts 104°
2026-05-06 18:25 50.96653 3.75593 40566 ft 430 kts 104°
2026-05-06 18:25 50.96002 3.80136 40719 ft 430 kts 104°
2026-05-06 18:25 50.95326 3.84841 40888 ft 430 kts 104°
2026-05-06 18:26 50.93986 3.94127 40927 ft 435 kts 104°
2026-05-06 18:26 50.92666 4.03216 40925 ft 434 kts 104°
2026-05-06 18:27 50.91291 4.12632 40921 ft 436 kts 104°
2026-05-06 18:27 50.89936 4.21848 40921 ft 441 kts 104°
2026-05-06 18:28 50.87086 4.41064 40908 ft 444 kts 104°
2026-05-06 18:29 50.85668 4.50539 40907 ft 443 kts 104°
2026-05-06 18:29 50.84245 4.59989 40904 ft 443 kts 104°
2026-05-06 18:30 50.82827 4.69350 40906 ft 442 kts 105°
2026-05-06 18:30 50.81393 4.78768 40903 ft 442 kts 105°
2026-05-06 18:31 50.79956 4.88145 40906 ft 441 kts 105°
2026-05-06 18:31 50.78501 4.97589 40900 ft 442 kts 105°
2026-05-06 18:32 50.77039 5.07020 40904 ft 442 kts 105°
2026-05-06 18:32 50.75562 5.16488 40902 ft 443 kts 105°
2026-05-06 18:33 50.74092 5.25855 40890 ft 443 kts 105°
2026-05-06 18:33 50.72607 5.35272 40902 ft 442 kts 105°
2026-05-06 18:34 50.71111 5.44703 40898 ft 442 kts 105°
2026-05-06 18:34 50.69611 5.54105 40897 ft 441 kts 105°
2026-05-06 18:35 50.68106 5.63483 40900 ft 441 kts 105°
2026-05-06 18:35 50.66703 5.72178 40894 ft 441 kts 106°
2026-05-06 18:36 50.65116 5.81958 40885 ft 441 kts 106°
2026-05-06 18:36 50.63583 5.91353 40880 ft 441 kts 106°
2026-05-06 18:37 50.62318 5.99073 40876 ft 441 kts 106°
2026-05-06 18:37 50.60531 6.09912 40871 ft 441 kts 106°
2026-05-06 18:38 50.58979 6.19268 40865 ft 441 kts 106°
2026-05-06 18:38 50.57417 6.28632 40865 ft 441 kts 106°
2026-05-06 18:39 50.55862 6.37902 40868 ft 441 kts 106°
2026-05-06 18:40 50.53490 6.51952 40858 ft 441 kts 106°
2026-05-06 18:40 50.51897 6.61325 40852 ft 438 kts 106°
2026-05-06 18:41 50.50389 6.70154 40855 ft 436 kts 107°
2026-05-06 18:41 50.48824 6.79271 40860 ft 435 kts 107°
2026-05-06 18:42 50.47252 6.88374 40861 ft 435 kts 107°
2026-05-06 18:42 50.45657 6.97562 40851 ft 435 kts 107°
2026-05-06 18:43 50.44060 7.06712 40845 ft 435 kts 107°
2026-05-06 18:43 50.42448 7.15907 40839 ft 435 kts 108°
2026-05-06 18:44 50.40841 7.25025 40852 ft 435 kts 107°
2026-05-06 18:44 50.39218 7.34187 40845 ft 435 kts 108°
2026-05-06 18:45 50.37595 7.43300 40843 ft 435 kts 108°
2026-05-06 18:45 50.35943 7.52527 40838 ft 435 kts 108°
2026-05-06 18:46 50.34306 7.61627 40836 ft 435 kts 108°
2026-05-06 18:46 50.32711 7.70451 40833 ft 435 kts 108°
2026-05-06 18:47 50.31124 7.79187 40840 ft 435 kts 109°
2026-05-06 18:47 50.29467 7.88265 40834 ft 435 kts 109°
2026-05-06 18:48 50.28724 7.92601 40836 ft 436 kts 105°
2026-05-06 18:48 50.27648 8.00419 40837 ft 436 kts 104°
2026-05-06 18:49 50.26380 8.09636 40835 ft 436 kts 105°
2026-05-06 18:49 50.25099 8.18879 40836 ft 436 kts 105°
2026-05-06 18:50 50.23817 8.28058 40828 ft 437 kts 104°
2026-05-06 18:50 50.22532 8.37201 40822 ft 436 kts 105°
2026-05-06 18:51 50.21231 8.46395 40816 ft 437 kts 104°
2026-05-06 18:51 50.19922 8.55585 40818 ft 437 kts 105°
2026-05-06 18:52 50.18601 8.64810 40816 ft 438 kts 105°
2026-05-06 18:52 50.17387 8.73221 40818 ft 438 kts 105°
2026-05-06 18:53 50.15996 8.82815 40823 ft 438 kts 105°
2026-05-06 18:53 50.14645 8.92072 40825 ft 438 kts 105°
2026-05-06 18:54 50.13279 9.01370 40823 ft 439 kts 105°
2026-05-06 18:54 50.11916 9.10601 40812 ft 439 kts 105°
2026-05-06 18:55 50.10550 9.19787 40798 ft 439 kts 106°
2026-05-06 18:55 50.09168 9.29031 40789 ft 438 kts 106°
2026-05-06 18:56 50.07786 9.38223 40789 ft 438 kts 105°
2026-05-06 18:56 50.06411 9.47317 40789 ft 438 kts 106°
2026-05-06 18:57 50.05232 9.55068 40792 ft 438 kts 106°
2026-05-06 18:57 50.03827 9.64251 40785 ft 438 kts 105°
2026-05-06 18:58 50.02536 9.72648 40787 ft 438 kts 107°
2026-05-06 18:58 50.01099 9.81944 40784 ft 437 kts 107°
2026-05-06 18:59 49.99677 9.91091 40780 ft 437 kts 107°
2026-05-06 18:59 49.98253 10.00197 40787 ft 437 kts 107°
2026-05-06 19:00 49.96814 10.09347 40788 ft 437 kts 107°
2026-05-06 19:00 49.95367 10.18492 40785 ft 437 kts 107°
2026-05-06 19:01 49.94165 10.26055 40784 ft 437 kts 107°
2026-05-06 19:01 49.92478 10.36606 40791 ft 436 kts 107°
2026-05-06 19:02 49.90497 10.45421 40788 ft 432 kts 115°
2026-05-06 19:02 49.88268 10.53982 40790 ft 433 kts 115°
2026-05-06 19:03 49.86010 10.62647 40783 ft 433 kts 115°
2026-05-06 19:03 49.83831 10.70997 40786 ft 432 kts 116°
2026-05-06 19:04 49.81610 10.79477 40787 ft 432 kts 116°
2026-05-06 19:04 49.79376 10.87981 40791 ft 432 kts 116°
2026-05-06 19:05 49.77108 10.96590 40775 ft 431 kts 116°
2026-05-06 19:05 49.74894 11.04964 40782 ft 430 kts 116°
2026-05-06 19:06 49.73040 11.11958 40791 ft 431 kts 116°
2026-05-06 19:06 49.70555 11.21292 40778 ft 432 kts 116°
2026-05-06 19:07 49.68254 11.29912 40789 ft 432 kts 116°
2026-05-06 19:07 49.65957 11.38482 40788 ft 432 kts 116°
2026-05-06 19:08 49.64051 11.46827 40793 ft 435 kts 111°
2026-05-06 19:08 49.62161 11.56003 40786 ft 435 kts 111°
2026-05-06 19:09 49.60338 11.64785 40786 ft 435 kts 111°
2026-05-06 19:09 49.58535 11.73424 40783 ft 435 kts 112°
2026-05-06 19:10 49.56688 11.82232 40790 ft 435 kts 112°
2026-05-06 19:10 49.54831 11.91040 40785 ft 434 kts 112°
2026-05-06 19:11 49.52955 11.99898 40792 ft 434 kts 112°
2026-05-06 19:11 49.51081 12.08703 40785 ft 434 kts 112°
2026-05-06 19:12 49.49206 12.17472 40781 ft 434 kts 112°
2026-05-06 19:12 49.47318 12.26264 40778 ft 435 kts 112°
2026-05-06 19:13 49.45404 12.35130 40486 ft 442 kts 112°
2026-05-06 19:13 49.44425 12.39644 40247 ft 448 kts 112°
2026-05-06 19:13 49.43432 12.44215 39990 ft 454 kts 112°
2026-05-06 19:13 49.42430 12.48821 39750 ft 456 kts 113°
2026-05-06 19:14 49.41427 12.53426 39485 ft 457 kts 113°
2026-05-06 19:14 49.40418 12.58046 39243 ft 456 kts 113°
2026-05-06 19:14 49.39410 12.62650 38987 ft 456 kts 113°
2026-05-06 19:14 49.38470 12.66938 38761 ft 455 kts 114°
2026-05-06 19:15 49.37488 12.71408 38518 ft 454 kts 114°
2026-05-06 19:15 49.36484 12.75948 38277 ft 453 kts 115°
2026-05-06 19:15 49.35405 12.80402 38037 ft 452 kts 117°
2026-05-06 19:15 49.34268 12.84913 37784 ft 452 kts 117°
2026-05-06 19:16 49.33153 12.89368 37748 ft 451 kts 117°
2026-05-06 19:16 49.30912 12.98336 37745 ft 452 kts 116°
2026-05-06 19:17 49.28651 13.07300 37735 ft 453 kts 117°
2026-05-06 19:17 49.26389 13.16316 37729 ft 456 kts 116°
2026-05-06 19:18 49.24131 13.25321 37740 ft 452 kts 116°
2026-05-06 19:18 49.21876 13.34263 37772 ft 450 kts 116°
2026-05-06 19:19 49.19627 13.43163 37773 ft 447 kts 116°
2026-05-06 19:19 49.17374 13.52030 37790 ft 450 kts 116°
2026-05-06 19:20 49.15143 13.60847 37766 ft 449 kts 116°
2026-05-06 19:20 49.12923 13.69638 37771 ft 448 kts 117°
2026-05-06 19:21 49.10640 13.78540 37747 ft 446 kts 120°
2026-05-06 19:21 49.09174 13.82665 37619 ft 442 kts 130°
2026-05-06 19:21 49.07279 13.86331 37325 ft 433 kts 140°
2026-05-06 19:21 49.05106 13.89449 37082 ft 428 kts 144°
2026-05-06 19:22 49.02853 13.92473 36833 ft 428 kts 145°
2026-05-06 19:22 49.00638 13.95447 36598 ft 428 kts 145°
2026-05-06 19:22 48.98401 13.98461 36372 ft 429 kts 145°
2026-05-06 19:22 48.96176 14.01462 36127 ft 430 kts 145°
2026-05-06 19:23 48.93945 14.04474 35873 ft 431 kts 145°
2026-05-06 19:23 48.91776 14.07403 35635 ft 431 kts 145°
2026-05-06 19:23 48.89746 14.10155 35421 ft 432 kts 145°
2026-05-06 19:23 48.87302 14.13477 35144 ft 433 kts 145°
2026-05-06 19:24 48.85062 14.16527 34780 ft 436 kts 145°
2026-05-06 19:24 48.82791 14.19625 34278 ft 436 kts 145°
2026-05-06 19:24 48.80558 14.22665 33831 ft 437 kts 144°
2026-05-06 19:24 48.78268 14.25761 33326 ft 437 kts 144°
2026-05-06 19:25 48.76028 14.28784 32857 ft 437 kts 144°
2026-05-06 19:25 48.73772 14.31822 32393 ft 434 kts 144°
2026-05-06 19:25 48.71513 14.34847 31935 ft 439 kts 144°
2026-05-06 19:25 48.69150 14.37979 31488 ft 454 kts 144°
2026-05-06 19:26 48.66764 14.41118 31138 ft 464 kts 144°
2026-05-06 19:26 48.64286 14.44356 30888 ft 468 kts 145°
2026-05-06 19:26 48.61871 14.47526 30635 ft 455 kts 144°
2026-05-06 19:26 48.59517 14.50631 30390 ft 439 kts 144°
2026-05-06 19:27 48.57276 14.53602 30157 ft 425 kts 144°
2026-05-06 19:27 48.55071 14.56535 29908 ft 420 kts 144°
2026-05-06 19:27 48.52908 14.59423 29665 ft 419 kts 143°
2026-05-06 19:27 48.50933 14.62727 29434 ft 427 kts 131°
2026-05-06 19:28 48.49491 14.66683 29194 ft 437 kts 117°
2026-05-06 19:28 48.48710 14.71117 28793 ft 447 kts 102°
2026-05-06 19:28 48.48696 14.75850 28165 ft 451 kts 90°
2026-05-06 19:28 48.48933 14.80508 27483 ft 444 kts 90°
2026-05-06 19:29 48.49160 14.85107 26814 ft 436 kts 90°
2026-05-06 19:29 48.49379 14.89611 26152 ft 429 kts 90°
2026-05-06 19:29 48.49594 14.94045 25441 ft 423 kts 90°
2026-05-06 19:29 48.49798 14.98269 24769 ft 417 kts 90°
2026-05-06 19:30 48.50013 15.02736 24056 ft 411 kts 90°
2026-05-06 19:30 48.50215 15.06981 23351 ft 406 kts 90°
2026-05-06 19:30 48.50414 15.11179 22622 ft 402 kts 90°
2026-05-06 19:30 48.50613 15.15390 21886 ft 396 kts 90°
2026-05-06 19:31 48.50805 15.19506 21111 ft 393 kts 90°
2026-05-06 19:31 48.50996 15.23605 20354 ft 389 kts 90°
2026-05-06 19:31 48.51364 15.31605 18835 ft 382 kts 90°
2026-05-06 19:32 48.51547 15.35593 18056 ft 379 kts 90°
2026-05-06 19:32 48.51723 15.39494 17352 ft 375 kts 90°
2026-05-06 19:32 48.51893 15.43396 16924 ft 365 kts 91°
2026-05-06 19:32 48.51824 15.47207 16769 ft 364 kts 98°
2026-05-06 19:33 48.51599 15.50977 16739 ft 364 kts 98°
2026-05-06 19:33 48.51374 15.54787 16737 ft 365 kts 99°
2026-05-06 19:33 48.51149 15.58613 16748 ft 365 kts 98°
2026-05-06 19:33 48.50925 15.62419 16736 ft 365 kts 98°
2026-05-06 19:34 48.50702 15.66214 16742 ft 364 kts 99°
2026-05-06 19:34 48.50476 15.70001 16739 ft 364 kts 99°
2026-05-06 19:34 48.50250 15.73808 16732 ft 365 kts 99°
2026-05-06 19:34 48.50020 15.77646 16729 ft 365 kts 99°
2026-05-06 19:35 48.49790 15.81480 16733 ft 364 kts 99°
2026-05-06 19:35 48.49561 15.85275 16742 ft 365 kts 99°
2026-05-06 19:35 48.49334 15.89043 16730 ft 364 kts 99°
2026-05-06 19:35 48.49101 15.92881 16741 ft 363 kts 99°
2026-05-06 19:36 48.48875 15.96615 16740 ft 353 kts 99°
2026-05-06 19:36 48.48661 16.00200 16747 ft 334 kts 99°
2026-05-06 19:36 48.48451 16.03658 16749 ft 328 kts 100°
2026-05-06 19:36 48.48239 16.07087 16738 ft 326 kts 100°
2026-05-06 19:37 48.48029 16.10483 16734 ft 325 kts 100°
2026-05-06 19:37 48.47548 16.13742 16741 ft 314 kts 121°
2026-05-06 19:37 48.46248 16.16260 16743 ft 301 kts 146°
2026-05-06 19:37 48.45099 16.17358 16740 ft 294 kts 160°
2026-05-06 19:38 48.42476 16.18050 16744 ft 284 kts 188°
2026-05-06 19:38 48.40611 16.17262 16722 ft 281 kts 207°
2026-05-06 19:38 48.39034 16.15498 16499 ft 281 kts 227°
2026-05-06 19:38 48.38021 16.13018 16253 ft 282 kts 247°
2026-05-06 19:39 48.37695 16.10127 16010 ft 287 kts 268°
2026-05-06 19:39 48.38102 16.07170 15760 ft 293 kts 283°
2026-05-06 19:39 48.38750 16.04246 15503 ft 294 kts 284°
2026-05-06 19:39 48.39400 16.01288 15255 ft 294 kts 284°
2026-05-06 19:40 48.40041 15.98368 15003 ft 293 kts 284°
2026-05-06 19:40 48.40674 15.95485 14762 ft 292 kts 284°
2026-05-06 19:40 48.41320 15.92546 14510 ft 292 kts 284°
2026-05-06 19:40 48.41955 15.89659 14258 ft 291 kts 284°
2026-05-06 19:41 48.42609 15.86778 14015 ft 292 kts 288°
2026-05-06 19:41 48.43766 15.84226 13787 ft 299 kts 312°
2026-05-06 19:41 48.45542 15.82564 13739 ft 307 kts 336°
2026-05-06 19:41 48.47669 15.82086 13743 ft 316 kts
2026-05-06 19:42 48.49787 15.82989 13740 ft 319 kts 28°
2026-05-06 19:42 48.51450 15.85185 13740 ft 317 kts 57°
2026-05-06 19:42 48.52284 15.88168 13740 ft 311 kts 83°
2026-05-06 19:42 48.52205 15.91369 13733 ft 303 kts 108°
2026-05-06 19:43 48.51562 15.94389 13732 ft 302 kts 112°
2026-05-06 19:43 48.50883 15.97412 13731 ft 302 kts 112°
2026-05-06 19:43 48.50217 16.00411 13736 ft 302 kts 112°
2026-05-06 19:43 48.49551 16.03417 13742 ft 302 kts 112°
2026-05-06 19:44 48.48888 16.06414 13739 ft 302 kts 112°
2026-05-06 19:44 48.48224 16.09420 13737 ft 302 kts 112°
2026-05-06 19:44 48.47290 16.12219 13746 ft 294 kts 134°
2026-05-06 19:44 48.45724 16.14074 13711 ft 286 kts 159°
2026-05-06 19:45 48.43807 16.14764 13486 ft 278 kts 182°
2026-05-06 19:45 48.41929 16.14206 13235 ft 273 kts 205°
2026-05-06 19:45 48.40401 16.12606 12991 ft 271 kts 226°
2026-05-06 19:45 48.39410 16.10188 12747 ft 273 kts 248°
2026-05-06 19:46 48.39154 16.07335 12499 ft 278 kts 271°
2026-05-06 19:46 48.39616 16.04493 12248 ft 282 kts 285°
2026-05-06 19:46 48.40239 16.01687 11996 ft 283 kts 285°
2026-05-06 19:46 48.40852 15.98892 11766 ft 281 kts 285°
2026-05-06 19:47 48.41464 15.96101 11733 ft 281 kts 285°
2026-05-06 19:47 48.42078 15.93307 11733 ft 282 kts 285°
2026-05-06 19:47 48.42699 15.90481 11723 ft 282 kts 285°
2026-05-06 19:47 48.43338 15.87686 11735 ft 283 kts 290°
2026-05-06 19:48 48.44483 15.85263 11743 ft 290 kts 315°
2026-05-06 19:48 48.46250 15.83723 11739 ft 297 kts 340°
2026-05-06 19:48 48.48297 15.83448 11741 ft 303 kts
2026-05-06 19:48 48.50272 15.84567 11736 ft 304 kts 34°
2026-05-06 19:49 48.51699 15.86896 11740 ft 303 kts 63°
2026-05-06 19:49 48.52249 15.89919 11737 ft 297 kts 92°
2026-05-06 19:49 48.51892 15.92938 11734 ft 292 kts 111°
2026-05-06 19:49 48.51241 15.95819 11731 ft 292 kts 112°
2026-05-06 19:50 48.50589 15.98742 11733 ft 292 kts 111°
2026-05-06 19:50 48.49948 16.01631 11736 ft 292 kts 111°
2026-05-06 19:50 48.49301 16.04558 11740 ft 293 kts 112°
2026-05-06 19:50 48.48653 16.07490 11739 ft 293 kts 111°
2026-05-06 19:51 48.47992 16.10395 11737 ft 292 kts 116°
2026-05-06 19:51 48.46872 16.12826 11745 ft 284 kts 142°
2026-05-06 19:51 48.45181 16.14242 11729 ft 277 kts 167°
2026-05-06 19:51 48.43305 16.14448 11524 ft 272 kts 191°
2026-05-06 19:52 48.41539 16.13421 11271 ft 268 kts 214°
2026-05-06 19:52 48.40270 16.11436 11029 ft 268 kts 238°
2026-05-06 19:52 48.39659 16.08769 10779 ft 270 kts 262°
2026-05-06 19:52 48.39857 16.05960 10533 ft 275 kts 283°
2026-05-06 19:53 48.40449 16.03238 10280 ft 276 kts 286°
2026-05-06 19:53 48.41057 16.00478 10026 ft 276 kts 285°
2026-05-06 19:53 48.41658 15.97737 9937 ft 275 kts 285°
2026-05-06 19:53 48.42264 15.94978 9951 ft 275 kts 285°
2026-05-06 19:54 48.42863 15.92250 9951 ft 275 kts 286°
2026-05-06 19:54 48.43466 15.89512 9952 ft 275 kts 286°
2026-05-06 19:54 48.44323 15.86969 9965 ft 279 kts 307°
2026-05-06 19:54 48.45839 15.85131 9969 ft 285 kts 331°
2026-05-06 19:55 48.47767 15.84425 9968 ft 290 kts 358°
2026-05-06 19:55 48.49748 15.85090 9963 ft 293 kts 26°
2026-05-06 19:55 48.51302 15.87024 9957 ft 292 kts 55°
2026-05-06 19:55 48.52083 15.89783 9959 ft 289 kts 83°
2026-05-06 19:56 48.51928 15.92755 9955 ft 284 kts 109°
2026-05-06 19:56 48.51301 15.95585 9950 ft 284 kts 111°
2026-05-06 19:56 48.50667 15.98418 9952 ft 284 kts 110°
2026-05-06 19:56 48.50047 16.01213 9955 ft 284 kts 111°
2026-05-06 19:57 48.49404 16.04053 9961 ft 285 kts 114°
2026-05-06 19:57 48.48523 16.06728 9961 ft 282 kts 125°
2026-05-06 19:57 48.47359 16.09016 9963 ft 281 kts 136°
2026-05-06 19:57 48.45908 16.10962 9962 ft 278 kts 147°
2026-05-06 19:58 48.44259 16.12463 9963 ft 276 kts 156°
2026-05-06 19:58 48.42485 16.13650 9962 ft 275 kts 159°
2026-05-06 19:58 48.40723 16.14796 9960 ft 275 kts 159°
2026-05-06 19:58 48.38936 16.15961 9957 ft 282 kts 159°
2026-05-06 19:59 48.37162 16.17120 9952 ft 275 kts 159°
2026-05-06 19:59 48.35448 16.18243 9776 ft 265 kts 159°
2026-05-06 19:59 48.33778 16.19335 9536 ft 258 kts 159°
2026-05-06 19:59 48.32212 16.20637 9291 ft 255 kts 144°
2026-05-06 20:00 48.31052 16.22625 9047 ft 255 kts 123°
2026-05-06 20:00 48.30457 16.25133 8806 ft 260 kts 101°
2026-05-06 20:00 48.30548 16.27872 8554 ft 265 kts 78°
2026-05-06 20:00 48.31092 16.30519 8301 ft 267 kts 66°
2026-05-06 20:01 48.32144 16.32789 8057 ft 268 kts 42°
2026-05-06 20:01 48.33717 16.34267 7806 ft 264 kts 17°
2026-05-06 20:01 48.35495 16.34676 7560 ft 259 kts 353°
2026-05-06 20:01 48.37242 16.34151 7312 ft 252 kts 339°
2026-05-06 20:02 48.38908 16.33423 7072 ft 247 kts 339°
2026-05-06 20:02 48.40537 16.32722 6825 ft 242 kts 339°
2026-05-06 20:02 48.42162 16.32020 6547 ft 236 kts 339°
2026-05-06 20:02 48.43719 16.31354 6309 ft 230 kts 339°
2026-05-06 20:03 48.45242 16.30706 6092 ft 227 kts 339°
2026-05-06 20:03 48.46757 16.30080 5852 ft 227 kts 340°
2026-05-06 20:03 48.48344 16.29944 5591 ft 234 kts
2026-05-06 20:03 48.49891 16.30449 5299 ft 235 kts
2026-05-06 20:04 48.51468 16.31041 5017 ft 234 kts 10°
2026-05-06 20:04 48.53041 16.31643 4963 ft 234 kts 10°
2026-05-06 20:04 48.54617 16.32292 4962 ft 235 kts 17°
2026-05-06 20:04 48.55945 16.33733 4967 ft 240 kts 54°
2026-05-06 20:05 48.56757 16.35892 4965 ft 233 kts 64°
2026-05-06 20:05 48.57456 16.38017 4993 ft 218 kts 65°
2026-05-06 20:05 48.58066 16.40100 4975 ft 215 kts 78°
2026-05-06 20:05 48.57944 16.42264 4958 ft 202 kts 122°
2026-05-06 20:06 48.57052 16.43792 4969 ft 190 kts 150°
2026-05-06 20:06 48.55942 16.44327 4968 ft 178 kts 184°
2026-05-06 20:06 48.54748 16.44210 4979 ft 176 kts 189°
2026-05-06 20:06 48.53515 16.44027 4977 ft 176 kts 190°
2026-05-06 20:07 48.52300 16.43845 4975 ft 176 kts 190°
2026-05-06 20:07 48.51064 16.43661 4975 ft 177 kts 190°
2026-05-06 20:07 48.49859 16.43494 4977 ft 170 kts 190°
2026-05-06 20:07 48.48684 16.43334 4978 ft 167 kts 190°
2026-05-06 20:08 48.47525 16.43186 4976 ft 166 kts 190°
2026-05-06 20:08 48.46355 16.43206 4972 ft 171 kts 178°
2026-05-06 20:08 48.45184 16.43628 4974 ft 174 kts 171°
2026-05-06 20:08 48.44011 16.44146 4973 ft 174 kts 170°
2026-05-06 20:09 48.42841 16.44657 4973 ft 173 kts 171°
2026-05-06 20:09 48.41692 16.45153 4973 ft 173 kts 171°
2026-05-06 20:09 48.40540 16.45648 4974 ft 172 kts 171°
2026-05-06 20:09 48.39379 16.46146 4976 ft 172 kts 171°
2026-05-06 20:10 48.38215 16.46644 4977 ft 172 kts 171°
2026-05-06 20:10 48.37059 16.47137 4978 ft 173 kts 171°
2026-05-06 20:10 48.35897 16.47635 4975 ft 173 kts 171°
2026-05-06 20:10 48.34735 16.48132 4981 ft 173 kts 171°
2026-05-06 20:11 48.33555 16.48634 4858 ft 177 kts 171°
2026-05-06 20:11 48.32384 16.49137 4642 ft 172 kts 171°
2026-05-06 20:11 48.31233 16.49630 4427 ft 171 kts 172°
2026-05-06 20:11 48.30094 16.50115 4202 ft 169 kts 172°
2026-05-06 20:12 48.28948 16.50605 3977 ft 168 kts 172°
2026-05-06 20:12 48.27828 16.51082 3757 ft 167 kts 172°
2026-05-06 20:12 48.26711 16.51559 3541 ft 165 kts 173°
2026-05-06 20:12 48.25619 16.52024 3321 ft 163 kts 173°
2026-05-06 20:13 48.24535 16.52487 3102 ft 159 kts 173°
2026-05-06 20:13 48.23471 16.52939 2885 ft 158 kts 172°
2026-05-06 20:13 48.22404 16.53389 2687 ft 160 kts 172°
2026-05-06 20:13 48.21341 16.53844 2487 ft 150 kts 171°
2026-05-06 20:14 48.20432 16.54250 2347 ft 124 kts 171°
2026-05-06 20:14 48.19643 16.54593 2190 ft 116 kts 172°
2026-05-06 20:14 48.18866 16.54910 1992 ft 112 kts 172°
2026-05-06 20:14 48.18122 16.55215 1858 ft 111 kts 171°
2026-05-06 20:15 48.17378 16.55525 1713 ft 111 kts 171°
2026-05-06 20:15 48.16633 16.55840 1565 ft 111 kts 170°
2026-05-06 20:15 48.15893 16.56153 1425 ft 111 kts 169°
2026-05-06 20:15 48.15150 16.56462 1287 ft 111 kts 168°
2026-05-06 20:16 48.14402 16.56779 1127 ft 111 kts 166°
2026-05-06 20:16 48.13660 16.57099 991 ft 111 kts 166°
2026-05-06 20:16 48.12915 16.57418 846 ft 111 kts 165°
2026-05-06 20:16 48.12168 16.57736 704 ft 111 kts 163°
2026-05-06 20:17 48.11445 16.58040 608 ft 98 kts 164°
2026-05-06 20:17 48.10900 16.58270 607 ft 66 kts 163°
2026-05-06 20:17 48.10534 16.58429 607 ft 43 kts 164°
2026-05-06 20:17 48.10323 16.58462 607 ft 27 kts 185°
2026-05-06 20:18 48.10162 16.58410 607 ft 12 kts 195°
2026-05-06 20:18 48.10097 16.58304 607 ft 16 kts 256°
2026-05-06 20:18 48.10115 16.58190 607 ft 12 kts 334°
2026-05-06 20:18 48.10213 16.58145 607 ft 14 kts 344°
2026-05-06 20:19 48.10300 16.58108 607 ft 14 kts 343°
2026-05-06 20:19 48.10349 16.58087 607 ft 4 kts 343°
2026-05-06 20:19 48.10369 16.58079 607 ft 0 kts 343°
2026-05-06 20:23 48.10370 16.58079 607 ft 2 kts 343°
2026-05-06 20:23 48.10453 16.58044 607 ft 17 kts 343°
2026-05-06 20:23 48.10586 16.57987 607 ft 22 kts 343°
2026-05-06 20:23 48.10753 16.57916 607 ft 27 kts 343°
2026-05-06 20:24 48.10944 16.57835 607 ft 25 kts 343°
2026-05-06 20:24 48.11052 16.57755 607 ft 16 kts 303°
2026-05-06 20:24 48.11118 16.57550 607 ft 27 kts 296°
2026-05-06 20:24 48.11207 16.57276 607 ft 31 kts 294°
2026-05-06 20:25 48.11309 16.56966 607 ft 33 kts 295°
2026-05-06 20:25 48.11415 16.56639 607 ft 33 kts 294°
2026-05-06 20:25 48.11523 16.56310 607 ft 35 kts 296°
2026-05-06 20:25 48.11621 16.56007 607 ft 34 kts 296°
2026-05-06 20:26 48.11724 16.55693 607 ft 32 kts 295°
2026-05-06 20:26 48.11831 16.55363 607 ft 36 kts 296°
2026-05-06 20:26 48.11947 16.55008 607 ft 40 kts 295°
2026-05-06 20:26 48.12075 16.54616 607 ft 43 kts 294°
2026-05-06 20:27 48.12185 16.54274 607 ft 35 kts 295°
2026-05-06 20:27 48.12288 16.53960 607 ft 35 kts 293°
2026-05-06 20:27 48.12381 16.53677 607 ft 12 kts 295°
2026-05-06 20:27 48.12423 16.53618 607 ft 5 kts
2026-05-06 20:28 48.12479 16.53629 607 ft 11 kts 340°
2026-05-06 20:28 48.12543 16.53652 607 ft 8 kts 25°
2026-05-06 20:28 48.12610 16.53698 607 ft 12 kts 21°
2026-05-06 20:28 48.12700 16.53760 607 ft 12 kts 25°
2026-05-06 20:29 48.12762 16.53806 607 ft 8 kts 27°
2026-05-06 20:29 48.12797 16.53820 607 ft 3 kts 311°
2026-05-06 20:29 48.12805 16.53796 607 ft 0 kts 295°